GFSWCAN_prec_cthk_000.txt.gz
RH
98 88 75 62 47 45 47 50 51 49 48 48 47 46 46 46 46 44 41 41 38 39 40 39 41 44 50 54 58 59 65 67 76 79 82 79 79 79 80 75 76 77 86 89 87 91 87 72 80 89 85 81 81 70
98 95 82 72 64 49 44 44 44 44 44 45 46 46 46 46 48 47 44 44 45 44 42 41 42 47 55 56 59 68 75 75 80 83 86 88 91 90 88 86 77 85 83 82 79 78 72 78 81 79 84 82 75 80
98 97 92 88 73 65 57 51 47 46 44 46 48 51 53 50 53 56 55 52 57 62 61 59 52 52 55 58 64 75 77 79 80 84 90 94 94 90 92 89 93 89 84 80 89 68 75 80 75 77 80 80 83 82
98 98 95 96 94 86 74 61 53 54 55 54 53 54 57 59 65 72 70 65 68 76 75 63 62 59 62 69 74 79 80 82 87 90 92 98 98 95 92 91 91 91 89 92 86 80 78 79 79 80 86 85 79 84
94 98 98 98 98 98 96 86 79 76 71 68 66 59 60 61 68 71 70 69 73 78 77 71 63 63 66 71 78 80 84 89 90 92 94 93 92 96 89 88 88 86 84 91 80 84 84 72 80 81 79 78 90 92
87 93 98 97 96 98 97 96 89 85 87 79 78 77 77 76 78 82 78 75 78 82 83 79 69 65 73 77 83 79 80 84 88 88 86 83 87 94 91 85 76 74 81 83 85 86 84 84 84 82 76 86 82 74
82 76 81 88 90 91 93 94 95 91 91 88 84 82 84 84 80 81 83 80 80 86 89 85 81 77 75 77 79 82 84 85 88 89 84 84 81 94 93 82 56 74 75 79 88 83 82 84 80 77 80 78 71 69
80 79 74 70 68 67 73 72 78 82 83 87 92 94 94 92 91 90 90 95 95 97 97 92 86 87 83 83 86 86 86 88 87 86 81 78 80 85 85 62 65 64 69 76 77 69 69 70 70 72 69 69 72 69
80 78 75 71 70 66 61 62 55 53 63 72 86 94 96 95 94 93 97 97 98 99 97 88 85 87 87 90 94 95 89 76 73 74 75 81 78 78 70 71 63 60 59 58 59 63 65 70 74 67 61 61 72 63
79 77 75 73 68 64 62 62 64 62 61 68 66 68 75 86 86 88 93 98 99 96 91 85 85 86 90 92 93 83 85 90 88 80 84 79 67 61 58 48 43 41 42 51 67 75 75 68 60 56 58 60 59 58
75 74 72 71 70 64 57 55 56 63 71 70 74 78 79 81 80 85 86 84 81 76 74 69 74 80 70 71 84 92 91 85 82 76 79 74 66 55 47 40 37 44 59 63 63 63 55 55 50 49 50 51 46 45
74 75 75 71 69 69 67 64 63 63 66 71 73 80 82 76 83 86 88 83 78 78 74 71 73 79 81 80 80 80 79 80 77 74 80 75 64 49 46 49 55 53 55 58 52 57 65 69 68 65 56 49 43 46
75 75 77 75 73 69 69 70 67 65 64 70 76 79 83 89 90 83 79 81 83 78 71 69 73 79 82 84 85 84 82 78 75 76 70 60 46 49 54 57 58 56 59 68 69 71 70 64 56 53 47 48 48 44
73 71 72 71 72 69 67 70 69 70 72 70 71 76 75 77 76 76 79 80 82 82 81 80 78 76 74 75 74 72 69 71 73 68 58 49 48 52 52 53 50 52 56 59 61 59 55 50 40 38 43 47 52 47
76 74 70 73 69 68 68 68 68 70 71 70 70 72 73 71 71 69 70 73 74 75 73 75 78 77 74 71 65 65 67 68 62 56 57 55 55 54 52 50 55 56 48 41 38 41 42 42 40 42 43 44 50 56
79 77 74 77 77 72 67 68 70 71 70 70 65 62 64 64 67 69 68 68 66 64 62 63 63 64 63 62 62 61 65 57 51 56 56 59 58 55 49 49 49 45 39 43 45 45 45 47 49 48 46 51 68 71
77 77 83 84 83 81 75 72 71 69 66 64 62 61 59 57 56 53 52 54 59 59 61 61 63 61 55 58 59 55 53 47 51 52 52 56 55 51 48 43 39 43 46 48 49 47 46 45 49 55 58 70 79 79
82 86 86 89 85 80 81 79 74 70 65 61 61 61 60 60 59 59 56 58 65 68 63 56 49 51 53 56 49 45 47 48 48 48 43 42 44 44 43 45 47 51 50 46 45 47 51 58 65 71 81 93 93 87
89 90 88 85 84 82 78 77 73 67 64 64 63 63 61 58 58 59 61 65 70 75 72 64 60 52 48 42 40 37 39 44 47 44 40 38 41 46 49 53 53 50 49 52 59 63 65 70 72 76 86 90 76 73
92 91 90 89 89 86 83 79 78 75 70 69 67 69 69 67 67 68 70 72 72 71 68 64 55 47 44 35 36 39 41 43 45 44 39 40 46 52 53 53 51 55 60 59 62 64 69 70 75 81 81 78 69 81
92 92 90 91 90 87 82 76 77 76 75 76 77 76 73 69 67 65 65 64 64 60 60 49 42 38 37 35 38 42 42 46 48 55 54 48 47 56 56 59 71 72 72 70 70 75 80 78 78 81 78 72 77 93
86 88 90 90 91 90 88 85 81 80 76 77 74 74 71 67 64 62 62 63 57 51 47 40 38 38 38 40 42 46 46 48 51 55 61 65 64 62 64 71 74 72 75 82 88 85 78 81 81 82 79 77 81 97
83 85 85 85 84 83 82 84 85 84 82 78 75 73 67 63 59 60 62 57 51 46 43 42 41 43 43 43 45 46 51 57 59 60 63 65 68 75 74 71 73 78 77 85 91 83 80 82 82 83 83 84 88 94
87 89 88 85 84 82 80 82 84 84 82 83 80 72 66 63 61 63 57 47 45 45 47 47 48 46 45 45 47 51 57 59 61 64 65 65 65 67 71 70 75 83 87 88 90 87 87 86 86 90 95 95 96 98
88 90 85 82 83 83 83 84 82 80 75 74 69 63 59 62 65 62 53 44 46 46 46 48 49 51 52 53 56 58 61 67 70 66 69 71 73 74 73 76 78 82 85 87 93 90 93 94 94 95 96 97 97 98
87 81 74 73 78 75 73 72 72 71 71 72 70 65 65 71 71 63 52 49 50 52 54 59 62 66 68 69 66 66 69 73 76 77 79 77 77 76 76 76 73 72 83 89 91 92 93 91 93 95 95 96 97 96
85 77 75 70 71 72 75 75 75 74 73 72 71 73 78 81 71 56 55 58 58 60 66 70 72 74 78 82 83 82 80 79 82 84 84 81 77 79 85 85 80 81 84 87 91 91 94 95 95 95 97 98 97 92
74 68 71 78 84 87 88 85 82 79 76 76 78 78 79 74 62 60 66 71 72 72 72 73 76 82 83 82 82 84 87 89 90 89 87 88 85 86 89 89 90 90 88 87 90 94 98 98 99 99 99 98 98 97
78 82 86 90 91 93 90 85 77 71 71 74 75 72 67 66 66 70 76 82 81 79 78 77 78 86 87 90 90 90 92 93 94 93 91 85 87 93 91 89 88 90 90 88 89 93 96 98 98 99 98 99 99 99
87 88 92 90 89 84 72 77 71 73 76 77 75 71 70 65 69 80 79 78 80 83 85 84 84 86 89 90 91 94 94 93 95 93 90 91 93 90 88 88 89 89 89 91 93 94 95 96 97 98 98 99 99 99
79 77 77 76 75 70 71 76 80 84 83 80 77 79 72 70 70 76 80 81 83 85 87 89 89 86 88 92 95 96 98 98 98 97 97 95 92 90 90 90 90 90 91 92 94 95 96 96 97 98 98 98 98 98
72 76 79 82 82 84 89 90 87 85 80 78 74 73 73 79 82 81 78 84 88 93 96 98 97 96 94 93 94 96 97 97 96 96 95 95 95 95 96 96 96 96 95 96 96 96 97 97 98 98 98 98 98 98
68 63 56 55 53 54 54 62 66 70 70 73 73 75 77 84 87 86 87 91 94 94 95 97 98 98 98 98 98 98 98 98 98 98 98 98 98 97 97 97 97 97 96 96 96 96 96 95 94 93 93 96 98 98

GFSWCAN_prec_cthk_003.txt.gz
RH
97 88 76 69 60 60 62 62 62 59 55 51 48 48 47 45 44 43 42 40 39 38 36 35 35 36 38 40 46 48 54 54 63 70 74 79 82 80 81 78 79 83 86 87 89 93 86 71 78 86 84 82 81 82
98 96 86 77 71 65 57 60 59 57 56 54 53 52 52 51 49 47 45 44 42 40 39 39 39 38 41 45 50 58 60 61 70 74 78 83 89 87 87 87 76 89 79 83 85 85 76 80 82 82 86 83 82 85
98 94 93 90 84 76 67 57 56 59 57 54 53 53 53 53 53 50 48 47 46 45 44 41 48 52 51 53 56 62 64 69 71 76 81 88 91 91 93 92 94 92 82 87 92 81 77 84 82 86 87 84 89 90
98 98 98 97 92 84 76 64 55 49 51 53 52 52 52 53 53 53 51 49 49 47 48 45 50 51 51 54 58 62 67 74 75 77 85 92 93 91 93 93 95 90 89 96 90 88 82 80 83 92 92 94 87 86
98 98 98 98 98 95 85 78 64 54 51 52 50 49 50 50 53 53 56 57 59 63 60 53 53 53 56 60 64 67 69 71 79 86 90 90 91 94 91 90 93 81 86 97 92 83 84 81 86 99 93 90 84 77
97 98 98 99 99 98 96 91 84 75 70 64 60 57 53 53 55 55 58 57 57 57 67 71 61 56 59 63 66 68 71 80 88 86 84 83 84 91 89 85 75 81 84 92 82 81 84 87 92 89 85 75 70 67
95 95 98 98 98 98 98 96 93 90 88 84 78 69 68 70 71 73 72 63 53 59 72 78 72 67 68 72 76 80 83 84 85 86 84 84 86 95 89 84 72 84 86 78 76 77 78 78 71 64 65 55 54 57
91 85 89 93 96 97 95 98 98 98 97 98 96 93 91 92 89 87 85 84 79 82 84 83 81 79 78 78 79 84 86 87 86 86 85 84 83 86 84 65 72 76 72 66 58 54 54 61 60 61 58 53 46 52
89 87 79 77 81 84 86 90 96 97 97 98 98 99 99 98 96 94 95 99 95 96 93 85 86 87 86 86 91 90 89 89 87 89 85 79 82 83 70 75 67 58 53 50 48 51 57 64 60 47 42 44 46 41
87 87 87 82 71 67 68 74 71 74 84 92 95 98 98 98 99 99 99 98 97 98 94 88 91 92 93 98 98 95 91 96 87 77 82 80 73 69 73 60 51 45 44 48 51 55 49 44 45 41 43 45 51 58
90 86 86 80 72 74 75 71 72 73 68 72 85 93 97 98 97 97 99 94 92 91 90 90 94 97 93 89 88 92 93 90 92 85 85 79 74 64 60 57 55 52 50 46 40 39 44 52 61 64 56 54 53 52
89 89 87 81 79 75 71 69 69 70 77 76 74 75 81 84 86 87 88 88 85 83 80 80 85 85 87 91 96 97 94 91 85 80 84 82 78 67 61 58 55 54 53 53 54 56 62 62 62 59 54 51 50 47
85 87 86 83 79 78 76 73 72 69 65 70 74 79 78 82 81 80 75 81 83 81 78 79 84 88 87 85 87 87 89 87 87 87 82 69 56 51 48 46 46 48 49 50 51 52 50 49 48 47 45 43 46 46
83 87 89 86 81 80 80 78 79 77 77 75 75 79 75 77 74 73 75 76 79 81 80 81 84 85 86 88 88 82 75 74 73 73 58 54 48 45 46 46 45 46 49 48 47 43 41 39 39 41 44 46 47 45
90 88 89 90 87 84 84 80 77 77 77 75 72 72 74 70 71 72 73 75 76 79 82 84 83 81 77 74 69 71 74 74 65 60 59 53 52 53 53 52 50 48 44 40 38 38 38 39 42 42 38 41 49 55
92 85 81 82 86 86 83 80 80 77 75 72 71 68 69 72 78 80 83 86 86 85 81 76 75 73 71 73 70 66 65 59 54 58 55 56 57 56 51 47 45 44 44 40 40 42 43 43 43 43 43 50 58 64
90 80 85 86 84 82 82 85 83 80 76 70 67 66 67 66 66 66 67 68 69 69 65 65 64 57 56 64 63 59 57 54 54 53 53 55 56 52 49 45 41 42 42 43 46 44 43 44 48 53 55 54 61 70
85 86 87 87 84 83 83 84 81 77 75 68 67 62 62 63 65 65 65 65 64 65 60 61 55 56 56 57 54 51 51 51 45 40 40 41 42 41 43 45 45 48 46 44 46 48 52 55 56 56 58 62 68 78
89 84 85 86 85 86 84 82 75 70 63 62 61 61 62 63 61 59 58 57 58 67 67 64 62 55 53 49 47 45 43 40 39 37 35 36 43 45 46 47 49 48 48 50 55 57 59 65 66 70 72 73 75 77
93 88 88 89 86 86 85 79 76 73 68 67 67 68 66 64 62 61 63 65 69 73 74 67 61 58 53 46 46 43 41 41 42 40 36 37 41 44 46 52 52 53 53 54 56 60 61 70 78 76 80 80 79 77
91 90 91 93 93 90 86 80 81 79 77 74 74 73 70 69 70 71 72 73 75 71 69 62 55 48 46 42 43 44 42 45 46 50 45 37 41 50 51 53 55 57 61 58 58 60 66 79 80 78 79 82 82 81
96 95 96 96 94 91 88 84 81 80 74 75 75 79 78 76 74 70 69 67 62 56 54 47 44 44 42 41 42 44 43 44 45 46 47 50 49 49 51 55 56 57 59 60 64 68 72 82 84 82 82 85 85 86
95 96 96 93 89 85 87 86 85 86 87 84 82 78 72 68 64 62 64 60 54 48 45 44 44 43 42 40 42 42 46 45 44 48 52 53 55 58 55 57 60 63 65 66 71 73 76 85 85 87 86 87 90 93
92 91 88 85 82 82 81 82 85 85 84 84 80 75 71 67 67 67 61 51 43 43 43 41 43 41 42 43 45 46 48 50 51 54 58 61 64 66 64 63 67 69 75 73 71 70 76 82 85 87 89 91 93 93
86 88 81 79 80 83 85 87 88 86 83 81 78 73 65 65 66 61 51 41 42 42 42 43 44 47 49 53 55 57 60 60 61 63 69 72 72 72 73 74 69 70 77 79 78 76 79 84 87 91 93 93 95 97
82 81 78 78 81 81 82 80 78 74 73 72 68 62 62 64 63 54 45 43 44 45 48 49 53 59 61 64 66 69 73 77 77 75 77 80 83 85 82 78 76 73 81 82 84 84 86 88 88 92 95 95 95 97
86 83 82 79 79 79 79 77 75 74 76 76 72 72 73 71 61 48 48 54 57 58 61 68 71 70 67 69 73 74 76 78 79 79 79 84 91 95 93 87 81 82 82 83 84 87 88 88 90 94 97 98 98 98
81 77 79 81 81 81 80 81 84 83 77 74 75 75 73 67 58 55 58 62 67 69 70 71 72 74 75 73 72 73 76 83 86 85 88 94 95 94 94 88 85 88 86 83 82 82 86 92 92 94 95 96 96 98
80 80 82 84 88 90 89 86 78 74 77 79 80 77 73 69 66 65 67 72 72 72 73 75 77 84 82 81 80 80 82 87 91 93 94 91 92 95 94 95 95 92 87 84 84 84 86 90 95 97 97 98 98 98
85 91 95 96 95 90 82 83 76 77 82 84 83 78 72 67 72 80 74 70 72 74 75 77 80 82 84 86 87 91 91 91 94 97 96 94 95 95 93 91 89 87 87 88 88 90 91 92 92 93 94 94 96 98
89 88 89 85 80 75 78 80 79 79 79 80 82 84 78 79 80 79 77 75 74 74 78 84 88 91 92 92 94 96 97 95 97 98 98 97 97 97 94 93 92 91 91 91 91 92 93 93 93 94 94 95 97 98
80 80 80 78 70 65 65 66 65 64 61 59 57 59 65 73 79 80 75 76 79 83 86 89 90 92 92 92 93 95 98 98 98 98 98 98 98 97 95 94 93 92 92 91 90 89 90 92 93 93 93 92 93 94
61 62 61 61 55 50 45 45 43 42 39 38 42 53 58 69 75 83 89 90 90 92 92 94 96 95 96 95 97 99 98 98 98 98 98 98 98 97 95 93 91 89 85 81 81 82 83 84 85 86 87 88 90 92

GFSWCAN_prec_cthk_006.txt.gz
RH
95 91 82 69 64 64 64 65 63 62 58 53 48 45 43 42 42 42 41 40 39 37 36 35 34 33 33 34 38 39 46 49 56 61 65 69 73 71 73 68 71 75 81 83 90 94 86 74 80 87 81 77 82 85
96 93 89 84 69 64 64 64 65 66 64 61 57 53 49 47 46 44 43 43 43 41 38 37 36 36 36 38 42 44 45 49 55 60 67 74 80 80 77 81 73 82 75 84 87 86 74 77 86 85 83 86 85 86
96 96 94 90 80 69 66 67 66 65 66 66 63 59 56 54 52 49 48 47 46 45 43 41 39 40 40 45 48 51 55 59 61 65 71 77 80 80 84 85 85 78 82 87 89 73 75 83 85 87 90 91 89 89
97 97 98 93 89 82 71 70 66 64 63 63 62 62 60 59 58 56 54 52 50 49 47 41 40 41 43 48 50 55 59 64 68 72 75 80 81 82 88 89 90 84 85 85 84 75 77 84 88 89 91 86 86 91
96 98 99 97 96 94 87 76 73 70 64 61 61 61 61 61 59 59 59 57 55 49 46 41 37 37 43 48 54 57 62 69 74 80 82 82 81 92 94 93 90 85 88 88 76 85 94 93 88 89 85 80 75 67
96 98 99 97 96 98 93 87 84 78 73 70 62 57 58 60 61 60 58 55 53 51 49 46 41 40 46 47 49 57 68 78 80 81 81 82 86 94 92 89 82 83 81 78 83 87 85 82 84 84 75 62 60 58
95 97 98 99 98 98 94 88 88 85 78 76 73 66 57 55 55 56 51 47 45 50 54 54 51 47 41 43 52 67 78 84 86 88 87 88 91 97 93 89 80 75 78 82 81 77 74 74 77 67 66 61 53 49
92 94 96 98 98 99 99 98 98 97 93 85 80 79 76 73 71 68 70 68 63 65 66 68 68 64 64 66 74 78 83 86 88 89 89 89 94 97 94 84 80 79 76 75 72 66 66 66 64 58 49 43 39 38
85 91 92 93 98 98 98 98 98 99 98 98 98 98 97 93 88 81 86 87 81 80 80 84 85 87 85 85 89 88 87 89 89 92 92 93 94 95 87 79 77 74 71 65 63 62 60 55 50 46 45 46 49 45
79 90 87 84 88 91 96 98 98 99 99 99 99 99 97 98 98 99 99 99 99 95 94 90 89 91 92 96 98 98 96 95 91 87 90 91 89 84 84 82 73 70 70 70 69 60 53 47 45 47 45 44 43 42
79 86 89 84 78 81 85 87 93 96 99 99 99 98 98 99 99 99 99 98 97 92 90 91 94 95 96 98 99 99 95 96 93 87 91 88 86 82 76 74 72 68 63 60 56 51 50 48 47 46 42 43 47 40
79 86 87 89 81 84 82 81 84 89 91 96 97 98 99 99 98 97 96 96 92 90 87 87 87 87 91 93 95 95 92 94 95 92 93 87 78 76 72 65 60 58 58 55 51 45 43 44 44 44 46 47 43 42
73 88 90 89 84 82 85 86 85 87 89 88 87 91 93 94 95 90 87 87 90 88 86 85 84 84 85 89 94 96 95 92 88 87 84 79 67 56 54 53 53 53 50 44 43 44 44 44 44 40 38 41 44 41
74 87 94 91 87 86 87 91 88 86 85 83 84 91 88 89 85 80 75 74 76 78 80 81 85 87 88 90 91 90 90 91 91 88 70 61 54 55 55 56 51 44 43 41 41 38 36 37 36 35 38 42 44 44
82 80 93 93 91 88 86 90 93 92 89 83 76 80 78 76 80 78 76 76 78 80 81 80 81 83 85 86 85 87 85 78 69 63 62 57 56 54 51 48 45 41 38 37 39 38 35 37 39 38 36 40 48 53
94 86 89 94 94 92 91 90 90 92 90 86 80 76 76 79 80 78 77 80 82 83 82 83 84 85 85 86 83 80 80 71 62 62 57 56 51 51 48 44 40 37 36 38 37 38 40 40 42 43 43 50 53 57
98 90 91 90 91 94 93 91 92 91 90 80 73 73 72 71 71 74 74 79 82 85 84 79 75 73 71 76 74 67 61 59 58 55 49 51 50 47 40 34 34 37 38 40 42 42 43 46 49 50 49 51 59 65
99 99 98 95 89 90 91 88 86 85 80 75 74 73 75 74 72 70 70 70 71 72 69 70 64 64 64 63 58 56 55 52 47 44 45 44 39 37 40 40 40 41 41 43 47 47 50 53 53 54 54 58 63 67
98 99 97 96 91 88 85 85 83 77 73 74 75 75 76 75 72 69 68 71 68 67 69 69 69 62 54 51 53 53 53 48 47 43 40 38 39 41 42 43 43 45 48 50 51 52 51 54 59 61 61 67 69 72
99 97 95 92 88 82 80 79 76 72 67 68 69 70 68 67 66 64 64 62 65 65 65 62 53 52 56 57 54 54 54 52 48 41 35 35 41 43 44 46 48 51 50 51 50 52 52 54 61 62 69 78 77 75
95 94 90 87 86 85 83 75 73 71 71 70 73 71 68 66 65 65 64 66 66 62 62 60 60 59 54 51 51 50 46 47 45 45 41 35 36 41 43 50 52 54 53 52 54 53 58 63 62 62 73 78 79 81
88 92 91 90 88 85 81 76 77 77 74 74 75 74 74 75 74 73 70 66 61 58 56 47 44 45 45 45 46 46 45 45 42 42 43 44 41 43 48 53 55 57 59 60 61 59 61 65 64 63 70 78 79 80
94 93 92 91 86 83 87 81 82 82 81 80 80 78 76 74 69 65 62 59 55 48 43 43 44 45 44 43 43 41 43 43 41 43 45 48 51 53 55 62 67 65 62 62 64 63 66 69 72 73 73 76 81 83
94 94 93 91 87 89 88 89 90 91 89 86 81 77 70 66 66 66 60 54 49 43 41 41 41 40 40 39 40 43 48 49 50 51 56 58 61 64 68 70 73 74 76 73 74 74 74 74 78 81 81 80 84 87
94 96 90 91 90 87 84 84 81 78 75 76 77 74 71 72 71 65 55 44 41 40 38 38 38 39 40 45 48 52 59 61 62 63 67 72 71 72 74 78 80 86 87 85 82 79 79 80 81 84 86 88 87 89
87 86 80 79 83 82 82 82 81 81 81 79 76 73 71 71 67 56 47 42 42 42 44 45 47 50 56 61 62 61 62 67 69 66 64 76 80 83 82 80 81 85 89 91 89 82 82 81 79 81 85 91 92 92
83 82 81 81 79 79 78 77 76 75 77 77 75 76 75 73 62 51 48 50 53 57 61 60 59 60 62 65 68 68 70 72 74 74 73 75 83 92 93 92 93 90 89 88 87 88 85 81 78 79 82 86 93 97
80 81 83 85 85 84 82 82 82 82 80 80 78 78 72 64 58 57 62 67 71 72 70 69 69 69 67 68 72 73 75 78 80 80 82 86 92 95 98 98 96 93 92 93 90 87 86 85 84 84 84 85 86 93
80 82 85 88 89 89 86 86 82 78 78 77 76 74 70 70 72 75 73 72 70 69 69 70 70 74 71 74 76 79 81 83 86 87 88 88 91 94 94 94 95 94 94 92 91 90 90 89 87 86 86 88 89 90
88 91 90 87 87 83 80 83 76 76 76 77 76 74 73 76 80 76 73 73 75 76 76 75 74 74 75 78 80 85 89 92 93 93 94 94 95 96 96 96 95 94 94 93 92 91 91 90 89 90 88 86 86 88
89 90 90 89 85 79 80 78 75 73 69 66 66 68 66 69 69 69 66 66 69 71 77 78 78 78 80 82 85 90 92 92 92 93 94 94 95 98 98 98 98 96 94 92 90 89 88 88 86 82 81 82 82 84
86 85 83 77 65 59 56 53 48 46 42 40 34 32 35 41 50 55 56 57 57 60 66 78 86 90 90 90 91 91 91 93 94 95 96 96 97 98 97 96 96 94 91 89 87 85 83 79 76 74 75 76 77 80
63 62 61 60 53 49 50 47 42 38 33 33 35 40 48 61 71 75 93 98 97 95 91 88 91 94 95 95 95 95 95 96 96 96 97 98 98 97 94 91 88 86 85 83 81 76 73 72 73 74 76 78 82 86

GFSWCAN_prec_cthk_009.txt.gz
RH
98 98 90 81 70 66 60 56 53 51 47 42 39 38 39 39 39 39 38 38 36 34 34 33 33 33 34 34 38 38 41 44 51 54 56 59 63 60 62 61 63 64 76 81 85 87 82 70 76 81 82 87 87 88
97 97 94 87 76 69 67 65 61 59 57 53 49 45 42 41 41 40 40 40 40 39 39 38 36 35 35 34 34 38 40 42 45 51 58 63 68 69 68 73 65 71 72 83 85 78 74 75 78 80 87 91 92 90
96 98 96 93 88 79 69 68 68 66 66 64 61 58 53 49 46 45 44 43 42 42 43 42 41 40 39 38 38 39 43 45 46 49 57 64 69 69 76 76 75 70 80 88 89 77 77 77 84 87 88 91 90 90
93 96 98 96 95 91 78 69 68 68 68 69 68 64 62 59 56 53 50 48 48 48 48 46 44 44 44 43 43 43 46 48 50 54 61 68 73 72 81 79 78 74 89 88 85 77 77 78 86 88 93 89 82 71
88 93 96 97 97 95 90 77 69 68 67 67 68 68 67 66 64 61 57 55 54 52 51 47 46 43 43 41 40 41 45 49 52 58 66 75 77 84 87 86 80 87 88 91 86 82 85 89 86 93 91 80 70 65
76 91 95 97 97 96 95 90 77 70 70 69 68 68 67 66 65 63 61 59 58 57 57 55 46 41 38 36 39 42 46 49 53 58 70 77 82 86 90 89 85 88 88 90 89 85 89 87 88 81 74 68 60 52
59 86 95 96 97 98 99 96 91 84 79 76 72 72 69 67 65 64 62 58 57 58 58 55 48 43 39 36 38 40 45 52 61 74 80 85 88 94 92 92 90 91 92 86 84 87 85 86 79 70 67 59 50 46
46 67 88 94 97 98 98 98 94 93 93 87 84 82 78 75 73 67 65 61 56 54 51 53 51 47 48 51 56 60 66 72 80 86 88 90 91 93 90 87 88 89 88 85 86 82 81 77 75 70 60 52 46 41
47 54 83 91 97 97 98 99 99 98 99 99 96 91 87 83 81 74 75 70 64 65 66 64 63 65 64 65 68 71 79 89 91 91 92 92 90 89 88 88 87 86 87 90 82 79 77 73 68 59 52 46 41 37
51 52 67 90 92 96 98 98 98 99 99 99 99 96 95 90 90 93 98 98 96 91 86 81 80 83 85 88 92 96 95 94 93 88 89 87 86 85 85 88 87 88 86 82 77 69 61 54 52 46 41 40 43 43
55 56 58 83 87 92 96 98 99 99 99 99 98 98 97 97 99 99 99 97 96 93 89 88 90 92 95 95 97 98 99 97 91 86 89 85 82 81 79 78 78 76 70 63 56 52 50 45 41 39 38 37 33 32
64 64 63 69 82 85 91 97 98 98 98 98 98 98 98 99 99 99 98 96 96 93 91 93 96 97 97 95 97 98 98 95 91 87 89 84 79 79 77 72 66 58 52 53 53 46 44 45 43 37 33 32 33 35
67 69 71 74 81 90 89 88 94 98 97 98 98 98 97 97 98 95 93 92 93 91 92 91 95 95 95 95 96 95 95 93 90 90 85 78 71 66 63 59 54 54 53 50 47 45 40 34 31 33 33 36 36 35
69 74 75 82 76 91 94 93 93 94 98 96 96 98 96 96 93 91 89 89 89 90 91 90 92 91 92 94 95 94 94 92 91 87 75 70 61 57 56 56 53 50 47 42 38 34 31 32 31 31 34 38 39 40
73 74 76 88 85 83 97 98 96 94 93 90 88 94 93 92 93 91 90 89 89 88 88 88 88 89 90 93 90 92 93 90 83 73 65 58 56 56 53 50 47 43 39 34 31 32 33 33 34 33 35 38 43 43
95 81 76 90 96 95 92 93 96 91 95 88 85 85 85 86 85 86 86 86 87 89 89 89 88 90 91 90 90 90 90 82 73 66 57 55 53 50 47 43 39 35 32 34 35 35 35 37 38 37 37 42 45 50
94 81 78 82 96 97 98 95 93 93 91 85 80 78 78 77 78 80 81 82 84 88 87 86 87 88 89 92 92 86 75 63 58 55 55 51 46 44 40 35 32 34 35 37 36 36 39 40 40 41 41 43 49 54
98 92 91 89 91 97 97 96 95 94 87 81 77 76 77 74 73 74 73 76 79 81 81 80 73 74 72 70 64 60 60 61 58 54 48 47 45 40 39 37 38 39 38 37 40 40 41 42 42 43 47 52 52 56
98 94 95 95 93 93 90 92 89 83 80 80 79 78 79 79 77 75 77 79 79 77 75 74 74 69 62 60 60 61 62 59 54 52 49 48 45 43 43 43 42 40 40 41 41 42 43 46 51 52 54 58 57 61
99 98 99 98 98 93 88 84 80 75 69 73 72 73 73 73 73 74 74 75 76 75 74 70 61 57 56 56 56 57 57 55 52 45 41 42 46 47 46 45 42 41 41 43 46 50 50 50 56 56 60 64 64 64
98 98 98 98 96 86 83 78 77 72 71 69 70 70 69 69 69 70 70 69 68 66 63 57 56 55 55 56 57 54 51 49 46 45 42 39 42 43 42 44 44 44 46 51 54 57 61 59 58 62 65 67 72 73
96 97 97 94 89 85 78 75 72 70 69 67 66 66 66 67 67 67 68 67 64 62 60 52 48 46 45 45 45 44 44 45 45 44 42 41 38 38 40 45 49 50 57 64 66 65 65 69 70 71 72 72 76 78
93 92 90 89 84 79 78 70 66 65 66 66 67 67 65 67 68 69 66 63 60 55 48 46 45 44 42 41 41 41 42 41 41 42 43 44 44 45 48 52 59 61 64 70 75 75 76 78 77 77 78 77 78 79
88 87 82 79 76 79 74 76 78 79 78 78 77 77 73 70 69 67 60 57 55 49 46 43 41 39 38 37 37 38 42 44 44 44 49 52 54 57 62 63 68 72 75 76 81 82 84 85 87 84 82 81 79 79
90 92 87 83 81 83 86 85 87 84 80 80 76 70 67 67 66 62 57 54 47 43 42 41 40 39 39 41 42 48 52 52 52 49 52 67 65 60 60 69 77 84 89 90 90 91 92 90 87 86 85 82 77 76
86 85 79 79 83 81 82 78 76 75 74 74 72 72 71 71 69 61 53 48 46 47 47 46 48 51 52 53 56 62 66 66 66 64 60 71 72 73 71 73 77 89 97 96 96 95 92 93 92 88 83 82 82 82
79 77 78 74 74 74 73 74 73 71 72 71 73 76 78 76 69 61 55 54 56 56 58 62 66 67 66 65 65 64 66 69 71 70 70 73 79 83 84 85 88 91 91 92 95 97 95 94 90 86 85 85 84 81
75 74 72 72 72 70 72 74 75 76 77 77 76 79 77 74 70 69 69 69 71 72 75 78 79 77 73 70 71 70 69 73 72 75 77 80 86 89 92 95 97 97 97 96 95 95 94 92 90 90 88 85 82 81
74 73 73 77 80 81 81 82 81 81 80 79 80 78 76 75 74 75 76 76 73 72 71 71 73 79 82 83 83 81 76 74 74 75 81 87 95 98 98 99 98 98 98 99 99 99 98 96 94 92 90 86 85 84
77 78 81 84 84 83 81 82 79 80 79 79 78 76 76 74 71 66 65 64 61 55 51 51 54 58 64 70 79 84 81 80 83 87 89 92 94 95 96 97 97 97 97 98 98 97 96 95 93 91 88 86 83 79
88 88 88 88 85 84 84 79 74 71 67 61 56 53 47 51 50 47 45 44 50 57 66 71 73 69 64 67 73 83 90 91 90 92 93 95 96 96 96 97 97 98 98 97 94 91 87 83 81 80 79 75 71 71
90 89 86 81 70 62 58 54 51 46 42 39 36 36 36 41 48 48 51 59 65 68 74 76 83 91 90 86 86 87 93 95 94 94 95 95 96 96 96 97 97 96 94 91 86 81 76 75 76 75 75 75 76 77
63 60 60 61 57 53 51 47 42 39 35 34 36 41 45 52 57 59 64 66 67 70 75 82 87 90 92 95 94 93 94 96 97 97 97 97 97 97 96 96 93 91 88 86 83 77 75 76 77 77 76 75 73 73

GFSWCAN_prec_cthk_015.txt.gz
RH
93 84 76 58 54 56 59 59 59 57 53 49 45 41 38 40 41 41 39 38 37 38 40 45 45 44 40 38 41 38 37 39 40 43 45 43 48 39 39 35 42 48 60 64 68 76 77 64 67 79 75 81 83 81
96 92 83 72 59 54 53 53 53 53 53 50 45 42 40 38 40 42 44 39 37 39 39 37 36 35 36 38 39 37 37 35 35 41 43 45 47 49 46 45 37 42 45 57 64 64 66 72 78 83 82 87 85 81
98 97 95 88 74 63 56 51 50 49 48 49 47 43 41 40 41 42 44 44 43 41 42 42 41 36 35 33 34 37 38 38 38 40 42 45 49 45 50 46 39 37 44 56 65 62 70 73 79 85 87 84 80 81
98 98 98 97 88 75 67 59 53 50 48 49 49 48 45 44 43 44 46 47 47 46 46 48 42 41 39 37 36 37 39 37 40 40 42 45 48 46 52 42 42 40 47 62 68 71 74 78 85 88 90 86 84 78
90 96 97 98 97 94 89 79 65 58 53 51 51 52 51 49 48 47 48 48 48 51 51 49 46 44 43 42 42 41 43 43 44 46 48 49 50 52 54 54 45 39 50 67 78 81 82 84 91 90 94 92 83 75
80 83 95 93 96 93 91 88 78 68 63 59 57 57 57 57 58 59 62 55 54 52 52 54 52 49 48 48 49 48 48 50 51 53 50 49 51 52 58 54 39 48 57 72 80 84 85 88 93 95 87 81 78 68
65 67 72 87 92 95 94 92 90 80 75 72 67 65 65 65 66 71 68 67 64 63 62 62 59 54 53 54 52 52 52 53 52 53 55 50 49 54 60 57 50 62 74 79 81 82 83 92 92 84 80 74 67 54
59 59 58 65 82 88 91 93 92 89 85 82 76 73 72 72 73 74 73 70 72 74 72 71 65 57 55 58 58 55 56 54 54 56 56 54 58 66 67 58 71 80 81 81 79 86 93 90 83 76 71 58 45 43
45 57 53 54 61 78 86 90 91 93 91 89 86 87 82 75 74 74 78 75 75 76 76 69 65 64 58 57 56 56 56 58 59 61 62 67 73 74 70 76 80 82 84 79 79 83 80 74 69 59 49 45 44 40
40 48 53 51 51 60 77 85 90 95 98 99 99 98 92 83 81 81 84 81 79 74 70 63 63 66 61 62 62 63 67 69 71 72 79 79 75 75 78 82 82 82 81 79 79 76 71 62 52 50 48 43 38 34
40 39 45 48 49 48 63 79 88 94 99 99 99 98 92 94 96 98 97 89 83 77 70 67 69 69 70 73 79 82 83 88 88 83 90 83 75 74 79 81 81 78 78 75 71 66 58 51 49 46 43 37 32 31
41 42 38 39 44 48 53 71 87 95 98 99 98 98 100 99 99 99 98 94 90 86 79 76 78 83 84 85 86 92 98 98 95 86 91 81 71 74 75 73 73 71 68 66 64 57 52 47 44 41 35 33 31 27
39 42 42 41 42 47 51 63 78 93 99 99 99 99 99 98 99 98 95 88 86 81 80 84 89 93 94 98 99 98 98 97 88 89 84 79 77 74 72 72 73 71 68 59 54 51 48 44 39 33 32 28 28 28
44 44 48 46 45 48 49 57 66 80 93 98 98 98 98 98 98 97 96 91 88 88 90 91 96 98 98 99 98 98 97 94 95 89 86 81 78 75 76 76 73 67 60 53 49 45 40 35 34 33 31 31 30 29
37 43 47 48 48 49 50 58 65 75 83 95 98 98 97 97 97 97 98 98 98 97 97 97 98 98 98 98 98 96 97 95 90 86 83 78 78 78 75 74 70 60 55 51 47 41 36 35 34 32 33 32 33 32
37 45 50 51 53 56 60 61 71 76 78 90 97 97 97 97 97 97 97 97 97 97 97 98 98 98 98 97 97 97 97 90 86 85 83 78 77 77 74 67 63 57 50 45 39 36 36 36 34 33 33 33 34 36
39 50 54 56 60 62 64 75 79 75 77 78 90 96 97 96 97 97 96 96 96 97 98 97 96 97 96 97 95 90 90 88 87 83 81 77 71 68 65 60 57 53 44 39 38 39 38 37 37 36 33 38 42 42
39 56 64 63 63 67 74 78 86 84 79 83 90 93 92 93 93 93 93 92 93 94 94 94 89 94 93 92 88 87 84 81 78 73 70 67 64 63 62 56 48 44 43 42 39 38 37 38 39 40 45 46 48 53
49 60 69 68 68 71 78 80 79 78 81 82 84 88 86 84 84 85 87 89 91 92 90 94 95 89 84 80 76 74 72 70 69 65 63 61 59 55 47 44 42 40 37 37 38 39 40 42 43 46 52 57 60 62
61 73 79 83 83 84 81 88 88 82 82 84 83 80 78 77 76 76 78 80 82 83 84 84 79 79 76 73 68 65 62 60 59 59 56 53 48 45 42 41 40 39 37 37 37 40 43 47 51 60 64 67 68 69
71 86 89 92 95 88 84 85 91 88 84 81 78 75 72 68 68 68 68 68 71 71 67 64 63 60 57 54 55 55 54 51 48 46 45 44 44 43 40 40 40 39 39 41 42 44 49 53 57 65 67 71 79 80
80 95 96 98 98 94 87 83 83 80 77 72 69 67 66 64 61 60 58 60 60 57 55 55 55 55 56 54 51 46 44 43 42 42 41 39 40 42 45 45 45 45 47 48 54 50 51 60 64 68 74 80 86 87
98 99 99 98 97 91 89 80 79 76 75 71 67 64 60 57 53 52 53 53 52 47 47 50 51 50 50 50 48 45 43 40 39 39 40 42 44 45 45 49 55 57 55 53 63 61 64 70 73 76 82 89 91 91
98 98 98 98 96 90 82 84 79 75 73 68 62 58 56 57 52 54 55 55 51 49 49 48 48 49 50 47 48 50 48 47 46 46 49 52 55 56 63 64 64 65 67 67 68 66 71 78 83 87 90 90 90 92
98 98 95 92 90 88 87 82 78 73 68 66 63 59 58 56 59 56 57 53 52 50 50 49 48 49 54 58 58 61 58 57 59 61 64 70 72 74 72 70 70 72 76 75 72 72 76 84 89 92 95 95 96 97
89 88 85 82 79 72 67 65 63 61 59 60 61 61 60 61 60 57 52 57 54 54 53 55 59 63 66 69 68 67 66 65 63 63 63 68 68 72 72 74 73 74 84 83 79 79 84 92 97 98 98 98 98 98
79 74 68 64 62 59 59 59 59 59 60 58 59 62 62 58 58 59 61 58 61 60 62 65 65 69 70 70 70 67 61 54 48 44 42 44 48 58 70 76 80 84 86 88 86 86 92 97 98 98 98 99 98 97
72 68 62 61 59 58 56 55 56 56 55 53 55 60 59 60 66 70 67 67 69 71 75 76 76 75 69 57 46 43 41 40 40 45 50 55 58 59 64 80 87 88 90 95 95 94 97 99 99 99 99 99 98 96
68 63 59 59 58 57 55 53 53 54 56 58 66 68 72 71 73 76 77 79 80 80 77 68 55 44 43 44 48 49 48 48 49 53 58 61 59 62 73 84 89 92 97 98 97 97 98 99 99 99 98 97 94 88
68 66 65 63 62 62 64 63 66 65 68 73 76 78 79 79 80 81 79 74 66 55 48 46 47 48 50 53 54 55 55 57 59 61 64 68 69 71 75 82 88 94 98 98 99 99 98 98 98 99 96 91 85 82
72 72 73 74 75 78 77 76 77 79 81 83 82 78 73 67 62 59 55 50 47 46 48 52 57 59 59 59 61 62 62 62 63 68 72 74 75 76 82 88 91 93 95 99 99 99 99 99 99 98 94 89 84 79
78 81 80 80 79 75 66 61 58 54 54 52 57 52 50 49 48 44 48 53 57 60 61 61 64 65 65 65 64 64 63 64 64 67 71 76 80 83 86 89 93 95 97 99 99 99 99 99 98 96 92 87 82 77
57 55 54 53 53 54 53 48 49 47 45 45 46 45 50 56 58 59 60 61 64 65 65 64 62 59 57 55 54 54 56 58 62 68 73 76 78 83 86 89 94 96 98 99 99 99 99 99 98 95 90 84 77 71

GFSWCAN_prec_cthk_018.txt.gz
RH
92 80 68 64 61 66 68 66 65 65 61 53 47 42 39 41 42 44 43 39 40 45 48 52 53 57 54 55 59 52 45 42 42 45 43 41 45 41 37 34 41 44 52 55 54 58 58 49 55 62 65 70 80 83
93 84 74 65 63 63 67 65 64 64 61 55 51 47 44 40 41 44 46 43 41 41 43 47 51 54 52 51 51 45 41 39 37 40 41 42 43 47 46 42 34 45 42 49 48 47 46 56 62 67 71 79 84 86
99 94 84 72 58 61 65 65 64 63 62 58 56 52 46 43 43 43 47 44 44 43 45 42 44 41 42 44 43 44 42 40 39 42 42 43 45 42 46 42 35 37 35 45 48 40 42 53 63 72 77 83 85 84
99 96 92 87 70 61 61 63 63 63 62 61 58 54 49 45 44 44 47 44 47 47 47 49 45 42 40 40 41 41 41 40 42 42 44 42 42 39 47 38 43 39 39 38 43 42 52 65 72 82 84 83 87 86
99 98 95 90 83 70 62 60 59 58 58 57 55 53 52 49 46 45 45 46 49 52 54 50 46 44 42 42 45 42 43 43 45 47 47 45 43 43 50 53 49 36 37 44 47 54 59 71 84 89 86 85 86 79
96 98 97 96 91 84 74 67 62 58 56 54 53 52 52 52 50 48 53 48 50 51 50 52 52 48 47 47 48 48 48 48 49 52 51 49 45 49 57 56 40 37 36 44 54 63 72 83 87 85 82 82 79 76
84 92 95 97 98 96 90 80 72 71 69 60 56 54 53 53 54 58 58 59 55 56 56 58 57 53 51 53 54 56 54 54 53 55 56 53 49 54 58 55 40 40 47 60 68 76 82 84 84 80 77 75 73 68
65 73 80 85 94 97 97 94 92 91 85 77 68 64 60 58 58 61 63 63 66 69 68 70 67 61 59 60 62 61 60 59 57 58 58 57 55 61 63 44 44 52 64 71 78 82 84 82 82 80 77 70 59 50
49 55 63 65 74 86 91 93 93 93 94 91 85 78 72 69 68 68 69 68 70 74 76 72 70 71 64 67 68 68 67 67 65 64 61 61 63 61 46 48 63 70 74 80 85 85 82 78 74 68 62 57 49 45
40 46 52 55 55 62 77 86 91 95 98 98 97 95 86 83 82 77 79 77 76 75 74 68 67 70 66 68 69 67 67 70 69 64 69 69 63 57 60 70 78 80 84 85 81 79 75 73 68 63 55 50 45 39
37 37 41 50 52 48 54 71 81 91 97 99 97 94 91 90 89 88 91 91 85 74 68 66 65 66 68 69 71 71 75 78 77 72 78 74 68 65 75 80 82 85 85 84 82 79 73 71 66 56 51 47 40 37
35 36 36 39 45 48 51 59 73 87 97 99 98 99 100 99 99 99 97 92 85 80 75 75 73 72 75 80 83 86 90 91 87 83 87 81 72 76 81 81 80 81 77 75 74 75 74 66 58 51 46 40 37 35
35 36 37 37 38 40 51 57 68 79 92 99 99 99 98 98 99 98 93 88 85 82 78 78 82 85 88 92 97 98 99 97 94 92 86 81 85 86 84 81 78 74 71 74 77 73 65 55 48 44 39 37 37 36
34 39 40 39 40 42 44 57 64 72 80 92 98 98 98 98 97 97 96 91 89 87 89 92 93 97 96 99 99 98 98 97 96 93 89 93 89 86 83 82 81 77 80 75 70 62 54 48 44 40 39 38 37 33
29 37 41 42 45 46 46 49 53 59 70 83 90 98 97 97 97 98 98 97 97 98 98 99 99 99 98 99 98 98 97 97 96 97 97 89 88 89 86 84 84 78 75 69 61 55 51 45 41 39 39 37 35 33
26 35 43 44 45 47 48 51 58 62 61 74 83 85 92 96 97 97 97 97 98 98 98 98 98 98 98 98 98 98 97 97 99 96 90 86 83 82 83 83 77 70 64 60 57 49 43 41 41 38 35 36 35 36
24 37 43 46 50 52 55 60 64 67 62 62 76 83 81 85 91 97 97 97 97 98 98 97 97 97 96 97 97 96 98 96 93 89 85 83 81 78 75 71 69 65 58 51 44 41 40 38 36 35 34 35 39 42
32 39 44 49 51 54 61 67 74 74 71 68 71 73 78 81 82 84 91 92 93 95 95 95 92 96 95 94 91 93 88 84 84 82 78 75 71 69 67 64 58 50 43 41 38 36 35 34 35 37 40 45 50 54
37 41 46 54 60 59 61 69 73 76 82 81 79 78 75 73 77 83 85 87 90 92 93 93 95 96 90 84 83 81 77 74 72 69 67 64 61 59 55 46 41 38 37 36 35 35 35 38 40 43 49 55 61 71
39 42 47 60 64 67 66 69 70 70 69 75 78 79 75 71 71 70 70 75 78 81 83 82 81 81 82 78 71 70 69 66 62 59 57 55 51 46 43 40 38 37 36 35 36 38 41 44 50 55 59 69 78 75
44 51 54 64 71 72 70 69 71 74 79 80 79 77 76 72 71 69 68 69 68 68 64 61 61 62 59 55 52 50 50 49 47 44 42 42 43 42 40 38 37 40 41 42 45 46 51 55 60 54 59 65 72 75
52 64 68 76 80 78 77 78 77 76 85 88 84 80 76 71 69 67 63 61 58 53 53 53 53 53 52 51 51 47 46 43 41 41 42 42 42 41 43 46 48 47 48 51 62 65 61 62 61 61 63 65 72 78
78 77 79 90 91 87 90 86 86 85 83 81 77 75 69 67 65 57 56 53 51 47 46 47 48 47 46 48 47 45 44 44 46 47 47 48 50 52 56 62 69 71 74 70 70 72 72 72 72 68 67 72 79 84
98 98 88 94 98 98 87 91 85 79 77 78 77 75 68 64 56 56 53 51 52 49 48 47 47 48 49 47 50 56 54 52 51 53 56 58 60 63 67 66 66 70 74 79 79 78 76 70 71 73 75 79 83 88
99 98 98 98 97 95 93 87 79 77 74 74 72 71 70 63 60 54 52 57 59 53 51 49 50 53 60 62 62 65 62 61 62 59 60 63 61 56 52 48 43 44 48 56 56 62 72 80 82 85 87 88 91 95
98 98 97 92 96 96 93 89 88 85 82 77 69 62 56 57 56 54 56 60 56 53 53 56 60 64 68 68 70 69 67 65 63 59 55 47 40 40 43 45 47 49 48 51 60 70 77 83 90 94 97 96 96 98
94 93 93 94 92 86 82 77 71 66 63 59 58 57 56 55 54 59 61 60 58 57 59 64 67 71 73 75 76 74 66 54 43 40 40 43 47 47 51 54 57 56 52 58 67 78 83 88 94 96 98 97 98 99
87 84 79 76 71 65 62 60 58 55 54 54 56 56 57 56 63 65 64 64 64 67 71 74 76 79 79 73 60 48 44 42 44 46 46 53 54 53 56 61 66 65 63 68 77 81 85 90 94 97 98 98 99 99
81 76 68 63 59 55 53 55 55 54 56 56 59 61 64 62 64 65 69 72 75 81 83 83 78 68 57 51 49 49 51 52 50 48 47 50 50 53 56 59 62 66 70 73 77 82 87 92 97 99 99 99 98 99
75 72 69 64 61 64 64 63 63 62 60 63 66 68 69 72 75 79 80 81 78 71 64 57 52 50 51 53 57 59 59 57 56 57 57 56 55 55 55 58 64 70 74 78 81 84 88 92 95 98 99 99 99 99
69 69 70 69 69 70 69 67 65 67 69 75 79 82 79 72 63 60 59 57 53 49 49 50 54 58 61 62 61 58 57 56 53 50 49 49 51 53 57 60 64 69 75 80 85 88 91 94 96 98 99 99 99 98
70 69 68 67 70 70 67 65 64 60 58 53 53 52 53 53 51 46 46 51 55 58 58 61 61 61 57 56 52 45 38 36 36 36 37 38 38 42 47 54 63 71 76 78 85 89 92 96 99 99 99 99 99 97
51 49 47 46 48 49 51 45 49 50 52 52 56 51 50 53 56 55 56 57 61 63 62 58 55 50 45 37 34 37 37 35 37 41 42 43 43 43 45 48 53 61 75 80 86 91 92 97 99 99 99 99 99 94

GFSWCAN_prec_cthk_021.txt.gz
RH
93 84 69 58 65 71 71 68 67 67 63 57 49 45 44 45 45 44 39 38 37 40 42 44 45 45 44 46 50 49 51 50 53 52 47 43 44 41 39 38 42 41 48 50 51 55 53 34 39 42 41 48 56 65
94 84 74 66 63 69 70 69 67 69 68 64 58 49 44 43 43 44 42 39 37 36 39 49 53 54 52 54 51 54 50 47 46 47 44 44 44 45 44 43 36 42 38 46 43 42 36 40 42 43 43 51 64 72
92 84 76 67 64 66 70 70 68 68 70 67 61 55 47 42 41 42 44 43 40 39 39 40 47 52 55 59 53 50 50 46 43 40 41 44 44 42 44 44 35 38 37 43 45 43 45 49 46 46 52 63 72 80
98 94 81 75 66 64 66 70 69 68 69 68 62 56 55 52 46 43 41 43 43 43 45 46 43 43 45 47 48 47 46 47 46 47 50 45 42 39 42 35 39 32 36 38 44 44 45 48 47 53 63 73 81 85
98 97 90 78 73 70 66 68 69 68 67 67 65 60 57 54 50 46 44 44 45 45 47 49 46 46 44 44 46 46 45 46 48 51 52 50 46 46 49 49 47 35 39 44 47 42 42 48 56 66 77 84 84 84
98 97 94 89 76 67 68 66 68 69 67 65 64 63 60 57 53 49 46 45 46 48 48 53 52 49 47 47 48 47 47 47 47 47 50 48 46 45 52 53 39 39 40 40 42 44 49 61 72 78 81 82 81 78
98 98 98 95 91 79 66 65 65 66 66 64 61 59 57 55 53 53 52 53 48 49 51 55 53 50 50 51 52 54 53 54 55 57 57 55 52 55 58 54 43 44 45 46 47 53 65 74 80 81 84 82 78 74
91 97 97 96 95 90 83 72 65 63 62 61 58 56 54 53 53 54 55 55 56 55 55 59 60 55 57 60 63 63 63 64 63 64 63 60 58 61 60 48 44 44 49 53 60 69 77 82 86 85 80 76 73 70
70 77 86 89 94 95 90 83 79 73 68 64 62 63 60 57 56 55 55 56 57 60 62 64 63 63 63 67 72 73 74 75 71 69 69 67 66 64 54 54 54 56 59 67 81 84 85 87 89 79 76 75 73 64
58 58 62 70 74 83 92 94 94 88 81 80 83 87 82 72 68 66 67 64 63 64 66 63 62 67 65 72 75 77 76 77 73 67 68 66 59 57 58 62 66 68 74 81 88 90 90 83 80 79 79 75 64 52
51 50 52 55 56 64 71 84 92 97 98 98 96 95 94 92 91 86 84 80 79 77 74 69 66 68 70 72 76 77 73 72 72 66 69 66 62 62 66 72 78 84 88 91 91 89 85 84 84 81 76 64 53 46
39 45 44 49 50 52 59 69 83 93 98 98 98 98 99 98 98 98 93 87 83 82 78 75 76 81 86 85 86 90 89 86 81 79 87 80 75 74 77 81 84 86 89 89 88 86 88 86 81 75 62 52 49 47
34 38 40 41 43 51 57 59 62 82 94 97 98 98 98 99 99 94 88 87 86 84 83 85 88 91 93 94 96 96 96 95 92 92 88 84 85 88 89 85 82 79 81 82 83 83 83 79 67 57 52 51 48 44
32 34 35 36 37 44 49 50 57 64 75 86 97 98 98 98 96 93 91 91 91 89 89 91 93 97 96 100 99 98 98 98 98 94 89 94 94 91 88 84 82 81 81 83 83 79 74 64 57 55 53 47 42 41
28 33 35 35 38 40 41 42 44 50 61 73 84 93 97 97 97 96 96 97 98 97 97 96 95 96 97 99 98 98 98 98 97 98 98 96 94 89 88 87 85 84 85 82 76 68 63 60 56 48 43 41 38 34
25 31 36 37 37 38 40 39 43 46 49 58 67 77 85 89 94 96 97 97 98 98 98 98 98 98 98 98 98 98 98 98 98 98 95 93 92 91 91 91 87 83 79 73 67 61 55 48 43 39 35 32 32 34
26 34 36 37 38 38 39 43 46 49 48 54 58 62 69 76 82 85 89 93 95 95 95 96 97 97 97 98 98 98 98 97 94 92 91 89 87 84 82 78 76 73 68 62 53 46 42 40 36 32 31 32 35 40
32 32 35 39 39 40 43 47 49 52 53 57 60 62 66 69 73 75 82 87 89 90 93 95 93 97 97 97 98 97 94 88 88 87 84 81 78 75 72 68 66 59 48 43 41 38 34 33 32 33 35 37 39 44
33 32 34 41 44 44 45 51 53 58 64 68 68 67 69 71 70 69 69 73 77 82 88 92 94 96 96 90 90 86 84 80 77 75 74 73 71 67 63 55 48 44 39 36 34 33 33 35 38 40 43 46 49 53
33 34 34 43 48 52 52 51 53 55 60 68 69 72 71 71 70 67 67 66 64 65 69 71 72 74 73 72 70 68 65 63 60 57 56 56 51 45 42 39 39 39 38 38 38 38 39 41 46 52 55 58 64 66
35 41 40 46 52 58 60 57 56 58 59 60 63 67 68 67 67 68 66 63 60 63 60 59 59 58 57 55 53 49 45 45 45 45 42 41 40 40 40 40 42 44 45 48 52 52 57 60 59 60 68 75 74 73
38 46 53 52 60 63 63 65 64 62 63 64 68 77 78 77 76 73 69 65 61 56 54 54 54 51 50 49 48 45 41 39 39 42 45 46 46 46 48 52 55 57 60 61 64 65 63 66 72 79 80 78 76 76
40 51 62 67 67 69 70 70 69 71 72 73 74 78 77 78 74 67 63 60 54 51 49 49 48 49 48 48 47 40 45 48 51 51 50 48 48 51 52 56 59 61 59 55 58 55 54 52 59 65 65 68 66 67
46 60 74 79 76 78 73 74 78 81 83 85 86 80 77 71 67 66 63 59 61 54 51 47 46 46 48 45 47 48 50 53 56 61 60 55 53 53 55 56 55 51 46 41 40 41 44 45 46 57 62 68 73 79
63 83 89 89 83 84 84 90 90 91 91 93 86 80 77 74 74 69 66 65 60 58 57 54 50 50 56 58 57 59 62 62 63 65 66 62 57 51 43 42 43 44 45 46 47 50 50 50 55 61 65 70 78 82
87 93 96 95 93 89 91 92 93 95 93 86 80 80 76 74 71 66 63 58 57 57 52 53 55 56 60 62 65 69 70 70 69 66 63 51 46 47 45 44 43 44 49 50 52 55 58 56 59 65 72 79 82 85
95 94 90 93 98 93 93 94 97 96 95 91 87 80 72 65 59 61 60 60 59 58 56 57 61 64 68 72 73 73 74 71 62 51 49 51 49 50 51 51 51 51 53 55 57 60 63 67 67 71 77 82 84 88
93 96 98 98 98 96 94 93 89 82 74 67 61 59 57 56 61 62 63 65 64 62 62 66 71 73 78 81 78 71 56 49 47 50 55 56 56 55 55 55 56 56 57 59 60 62 67 70 72 77 82 83 86 90
92 91 88 87 80 75 72 69 66 63 61 56 57 59 60 60 62 63 66 67 70 73 77 80 79 75 68 57 51 48 47 48 47 48 49 49 45 43 40 37 37 40 44 48 57 63 66 72 75 78 82 86 89 92
85 83 79 73 72 73 71 69 68 66 63 64 66 66 67 69 71 73 76 80 78 71 64 60 55 50 49 50 52 53 53 52 49 45 41 36 32 30 30 31 32 34 37 40 45 52 65 71 77 80 85 90 91 93
80 78 76 74 74 73 72 69 67 66 65 69 72 73 74 76 72 65 60 56 52 48 46 49 52 53 53 53 53 52 49 46 40 35 34 34 34 34 34 35 36 37 39 43 47 53 58 68 79 82 88 91 94 98
73 71 68 66 68 63 57 53 51 49 49 49 49 49 52 54 54 50 49 49 52 54 53 53 53 54 54 53 50 42 37 34 35 35 37 39 39 39 40 40 42 44 46 49 52 57 61 68 76 82 90 92 98 99
50 47 44 45 47 47 46 39 43 45 48 47 50 52 52 53 54 53 54 55 57 57 55 55 54 51 47 41 36 34 34 35 37 38 41 43 44 43 42 43 46 50 54 57 58 60 65 70 77 83 90 93 100 100

GFSWCAN_prec_cthk_024.txt.gz
RH
94 85 76 76 84 82 74 71 68 62 57 50 52 57 56 52 49 46 42 41 39 39 42 43 42 41 41 38 43 43 46 46 50 51 53 53 51 46 43 40 41 42 47 50 52 53 43 29 36 38 36 39 41 45
94 84 69 73 85 83 76 71 71 65 59 54 49 49 51 50 49 43 38 38 37 36 42 45 46 44 42 43 43 47 42 43 46 49 51 52 50 51 45 44 38 37 33 39 38 38 30 32 33 36 40 44 45 50
92 78 67 68 82 84 80 74 71 70 63 57 51 46 43 45 47 46 41 40 37 35 38 45 50 51 50 47 46 47 50 50 48 44 47 47 45 47 49 47 41 35 36 40 41 34 35 37 40 44 50 49 53 58
92 80 69 65 72 81 81 78 73 71 69 65 59 52 47 43 42 42 41 41 40 39 40 42 45 48 51 51 50 52 51 49 47 46 48 48 47 44 45 40 42 35 40 40 44 42 44 45 49 54 53 55 62 67
94 87 76 66 63 72 76 76 77 73 71 69 67 62 56 48 45 43 41 40 40 40 43 45 44 44 43 45 47 48 49 49 50 52 55 56 53 52 52 51 47 37 37 41 42 40 43 47 50 50 55 63 71 77
97 92 86 74 66 65 69 72 73 72 72 71 70 66 60 57 57 55 49 45 44 43 43 47 48 46 47 46 45 46 47 48 50 49 52 51 49 47 54 53 40 38 39 40 40 41 43 47 53 61 69 74 77 81
99 95 88 81 72 67 65 67 69 69 68 69 69 67 64 60 59 57 55 54 50 48 44 50 49 49 49 50 51 51 51 52 53 54 54 53 52 54 56 55 43 44 45 45 46 49 58 61 67 72 76 84 85 84
98 98 95 91 86 78 72 67 65 65 66 66 65 65 64 63 63 61 59 55 53 51 50 55 54 50 52 55 57 58 60 61 62 63 65 63 64 67 64 53 51 52 54 55 58 59 62 71 77 83 91 86 86 82
98 97 97 95 91 87 79 74 75 66 65 67 67 66 64 62 60 59 59 55 55 54 55 55 52 52 55 60 66 69 71 74 72 73 74 74 72 67 57 56 54 54 57 60 67 73 78 82 88 90 89 87 83 83
82 93 94 93 95 94 91 82 74 72 71 69 67 67 65 62 59 56 58 55 55 57 58 56 53 56 56 62 67 71 72 76 73 71 75 71 64 57 55 55 56 59 64 70 80 84 87 93 91 92 85 85 87 83
61 64 70 80 82 87 92 92 88 79 73 71 69 68 67 66 65 66 68 65 64 63 61 61 60 63 68 72 74 76 79 82 77 69 73 69 66 61 59 62 71 77 81 87 90 94 92 92 90 85 88 88 79 64
60 59 57 57 64 74 82 90 96 96 87 86 87 84 81 81 85 91 89 84 81 81 80 78 78 82 85 83 86 89 92 93 89 84 86 79 74 76 76 77 81 84 86 88 92 94 94 90 93 89 83 71 63 58
47 52 54 55 57 59 62 77 92 98 99 99 98 98 98 98 98 93 91 87 86 85 86 88 91 92 94 96 98 98 98 95 92 92 89 85 87 86 84 84 83 86 90 89 92 95 92 87 86 75 68 62 59 58
42 44 50 51 52 57 60 60 66 82 94 97 98 98 98 97 93 91 89 89 88 88 89 91 93 94 96 99 99 98 98 98 97 93 88 90 93 90 88 86 86 87 86 84 82 86 86 78 72 66 63 60 54 47
32 36 40 42 43 47 48 54 61 62 67 78 88 96 97 95 95 94 94 94 95 95 94 93 93 96 97 99 98 98 98 97 97 95 94 96 94 93 89 89 89 88 89 88 85 81 76 70 65 60 54 48 44 40
29 31 33 34 34 34 40 46 46 50 58 64 69 75 84 90 94 97 97 96 96 97 97 98 97 98 98 98 97 98 98 97 97 97 97 97 96 96 97 97 90 88 86 83 78 71 65 59 53 48 44 39 35 34
27 32 33 32 31 31 32 34 39 41 43 51 54 58 63 67 72 79 85 89 92 94 96 98 98 97 97 98 98 98 98 97 96 96 94 93 94 95 96 95 91 86 82 75 68 60 53 48 43 39 36 34 36 38
22 26 29 31 32 33 34 36 38 41 46 50 52 55 57 59 60 61 65 70 74 77 80 83 86 90 94 95 97 97 97 95 96 96 95 91 89 87 82 79 77 73 65 56 49 45 42 39 38 37 36 36 38 42
22 26 28 33 34 34 36 39 41 44 47 50 54 55 58 60 63 63 62 63 66 71 74 78 82 86 88 85 91 92 88 85 82 78 74 71 69 68 66 62 55 51 48 44 42 41 41 41 41 42 46 47 47 49
27 26 26 32 37 41 41 42 44 47 52 57 57 60 62 61 61 60 61 61 61 60 61 62 64 66 65 63 62 59 57 56 53 52 51 52 51 47 43 41 41 42 43 44 45 48 51 53 57 59 60 60 59 58
27 30 29 30 37 41 46 45 47 48 50 49 53 55 58 58 59 61 61 60 59 61 59 58 59 59 58 56 54 52 51 49 47 45 43 41 43 43 42 42 43 46 50 52 53 53 56 57 57 55 54 53 54 54
28 31 37 37 41 48 48 52 52 53 51 51 54 55 57 61 65 67 67 66 64 60 61 60 58 56 56 55 53 49 44 38 39 40 42 42 42 42 44 45 47 49 54 56 56 54 50 48 45 42 40 39 43 47
30 32 39 46 47 49 56 56 58 58 58 60 62 61 62 66 72 72 69 67 66 65 62 59 56 54 53 52 50 47 44 42 43 44 47 50 51 52 54 55 54 52 48 45 44 44 42 41 41 42 46 49 57 58
38 40 43 52 59 62 60 60 65 67 66 68 68 70 72 70 73 74 72 70 70 67 59 57 57 54 51 47 45 46 47 49 52 53 53 53 56 58 59 60 58 52 50 48 45 42 41 41 44 47 51 54 57 60
46 48 49 58 68 70 71 70 75 78 80 84 85 88 87 85 79 74 70 76 76 74 71 65 57 51 51 50 51 53 56 60 63 63 59 58 60 63 63 55 52 50 45 41 40 40 43 47 50 53 55 61 67 68
59 60 57 70 80 80 80 78 84 87 88 95 97 96 92 86 81 74 76 78 76 69 65 62 57 53 53 54 57 60 63 64 64 64 62 62 63 55 48 44 42 43 45 46 46 46 45 45 46 49 52 59 67 73
76 77 85 89 93 95 95 93 91 95 95 97 93 97 94 88 81 82 79 72 68 65 61 56 55 58 62 62 63 66 70 73 71 65 57 51 50 50 48 46 44 43 41 38 37 37 38 39 43 47 51 57 65 71
97 96 95 96 98 98 98 98 98 97 96 95 92 90 86 79 77 70 64 64 64 63 63 64 67 68 70 71 74 73 65 54 48 46 48 52 55 50 44 40 35 31 29 30 31 34 37 40 44 48 54 58 66 71
97 98 97 97 97 93 91 91 89 88 85 81 77 74 71 68 65 66 65 67 69 69 71 76 77 73 67 61 54 46 42 42 45 47 46 44 41 38 33 29 27 28 29 31 34 37 39 43 47 53 58 61 68 74
95 94 88 84 83 81 79 77 75 73 71 70 68 69 69 71 73 75 78 80 81 77 70 65 62 56 49 47 47 48 48 47 45 44 40 34 30 29 30 31 32 33 34 34 36 39 43 46 51 57 63 66 70 77
83 82 80 78 79 75 75 74 72 72 71 72 71 69 70 71 69 66 62 60 58 53 50 49 50 51 50 50 51 52 52 48 41 35 32 31 33 34 35 37 37 37 37 39 41 44 48 52 56 60 63 67 73 80
77 76 72 71 69 65 57 52 47 45 47 47 46 46 47 49 52 49 48 47 48 51 53 54 54 55 56 55 53 48 40 35 33 33 33 34 35 38 40 40 39 39 40 43 46 50 54 57 61 65 68 72 76 82
53 52 50 49 49 48 43 37 39 42 46 47 48 50 53 57 59 61 59 60 61 60 59 58 58 57 55 50 44 38 35 35 36 37 38 39 39 40 38 37 38 42 46 48 51 54 57 60 66 70 73 76 82 87

GFSWCAN_prec_cthk_027.txt.gz
RH
63 63 64 66 70 76 73 69 64 64 70 56 48 42 34 38 57 60 54 44 40 37 43 43 40 40 40 40 43 41 44 45 48 50 51 52 52 49 48 45 47 47 50 51 53 54 40 24 32 35 30 28 34 38
61 62 72 78 76 76 74 69 68 66 64 63 59 48 40 39 40 48 44 42 41 40 44 44 44 43 42 42 41 42 41 41 44 46 48 50 52 52 48 47 43 45 38 41 40 36 26 28 30 32 34 35 39 45
73 72 78 76 77 77 75 73 71 68 63 53 62 66 57 51 48 46 45 44 40 41 44 45 45 44 44 43 42 43 44 40 41 40 44 46 44 47 48 48 43 41 39 41 39 31 33 35 36 37 40 43 48 55
82 79 83 83 83 81 77 76 73 69 64 56 49 55 60 58 51 45 41 38 35 34 37 47 46 48 48 47 47 46 45 48 48 46 47 46 43 41 43 40 43 42 43 42 44 40 42 41 40 42 45 50 56 59
88 80 82 79 87 86 78 76 74 70 65 60 54 50 51 51 49 47 44 42 39 36 40 42 45 48 49 51 51 50 50 49 49 48 50 50 47 48 49 51 48 43 43 46 43 37 39 39 42 46 51 53 55 62
88 84 81 82 93 89 82 76 75 72 69 65 59 54 50 47 45 42 40 41 40 38 38 45 45 44 44 46 45 46 46 46 48 48 51 50 47 48 54 53 39 37 39 40 40 42 43 45 47 50 55 63 69 76
92 82 78 82 88 91 85 81 77 75 72 72 71 68 63 57 51 47 45 46 44 41 39 47 46 46 46 47 47 48 49 50 52 52 52 51 51 53 57 56 37 43 45 47 48 52 54 55 59 65 68 75 82 84
94 88 78 73 76 85 85 84 82 79 76 74 72 72 71 69 64 62 61 59 57 53 49 51 50 48 50 52 54 54 54 54 55 57 57 57 60 63 63 50 54 55 55 55 55 56 58 62 67 73 80 84 83 91
98 92 87 80 72 67 69 76 78 76 76 77 76 74 74 73 71 69 66 64 60 56 55 56 53 54 56 59 60 60 62 65 65 67 69 70 69 67 62 61 59 58 57 56 57 62 67 75 82 86 87 94 95 90
97 98 96 93 87 78 72 67 68 69 71 72 72 71 70 71 70 68 68 62 62 61 59 58 54 55 54 57 60 61 64 68 68 67 68 67 62 60 63 62 62 64 67 67 70 74 82 84 89 94 99 98 90 90
98 94 95 95 93 88 85 81 78 73 69 69 69 70 72 72 70 68 68 66 64 62 60 59 57 54 55 58 64 68 71 74 72 70 75 72 72 72 73 72 72 73 77 82 86 90 90 90 97 97 92 93 96 89
82 90 93 90 94 96 95 91 90 81 77 77 75 73 74 73 72 74 74 71 68 66 64 67 66 69 75 78 80 83 88 87 84 80 83 77 79 77 77 78 79 81 84 86 88 92 93 96 97 98 97 88 75 71
65 67 73 79 86 91 97 98 97 97 92 86 84 83 81 80 78 78 76 72 69 74 83 89 93 94 95 96 97 98 98 95 92 91 89 86 84 81 83 85 88 90 91 93 94 95 95 96 93 82 75 72 69 67
63 65 65 66 65 69 78 91 98 99 98 98 98 94 88 89 87 85 80 83 88 92 93 93 94 96 96 98 98 98 98 96 94 90 86 89 89 88 87 85 87 86 84 84 86 93 86 81 78 74 72 68 64 59
52 53 56 56 58 61 62 69 77 88 95 98 98 98 97 96 95 94 95 97 96 95 96 97 97 97 98 98 97 98 98 95 92 91 92 94 93 94 89 89 93 85 86 85 84 84 82 78 73 70 65 61 56 50
43 44 44 44 48 50 53 57 61 62 72 78 87 93 95 95 96 97 97 97 97 98 98 98 98 98 98 98 97 98 98 96 96 96 97 96 93 94 95 97 92 90 90 87 83 81 77 72 66 60 53 48 46 43
33 35 34 37 38 39 42 46 50 51 59 65 70 72 74 75 81 83 85 87 89 92 94 94 94 94 96 97 97 98 97 97 97 95 94 94 93 93 93 93 87 85 83 80 75 68 61 54 49 47 44 42 41 39
21 26 27 28 28 29 31 36 38 42 49 54 58 61 60 61 63 65 67 70 71 70 70 72 76 81 85 87 89 89 90 87 88 93 95 94 90 85 79 75 74 72 68 61 53 50 48 46 43 41 41 43 44 47
18 19 22 26 26 29 32 35 36 40 44 46 47 50 52 54 59 61 59 56 58 60 60 63 67 70 74 75 79 84 82 81 83 83 74 67 63 61 60 58 54 48 42 40 41 41 42 45 48 50 52 53 51 51
19 19 17 23 27 29 33 37 39 41 45 49 49 52 53 54 55 57 56 55 54 54 53 53 56 56 55 53 53 54 55 54 53 51 51 50 51 50 48 42 38 37 37 39 42 45 45 46 50 52 52 52 49 42
18 20 21 21 25 30 36 38 41 43 45 49 52 52 54 54 53 55 57 55 52 51 51 52 54 54 54 54 54 53 52 50 48 48 50 50 47 42 39 38 39 40 39 40 43 45 48 47 44 42 40 39 40 41
22 23 25 25 28 34 38 44 44 47 46 48 47 48 51 53 53 54 56 54 55 57 58 57 60 62 60 59 57 54 52 49 44 42 43 44 43 41 41 41 43 46 48 49 50 48 45 45 45 44 42 40 40 41
21 21 25 30 33 36 45 45 48 50 51 53 53 53 54 55 57 61 62 60 63 68 68 64 62 64 64 64 61 59 56 53 50 50 49 47 47 48 49 50 51 51 53 55 52 49 47 44 40 38 39 41 43 44
26 30 31 35 41 48 47 50 52 56 57 62 62 61 62 63 64 68 65 67 72 70 70 68 67 68 66 64 64 62 58 54 52 51 52 54 56 57 58 56 57 59 55 49 44 41 40 39 38 37 37 37 39 42
40 43 40 43 45 48 52 56 61 63 64 67 70 73 74 75 74 74 72 75 80 80 79 77 77 75 74 70 67 63 60 59 57 57 57 58 59 60 62 62 57 48 42 39 38 36 34 32 30 29 29 32 35 38
50 53 51 55 56 58 66 71 73 74 74 78 84 86 87 89 91 87 85 88 88 85 83 82 80 77 70 66 65 64 63 62 61 61 62 65 64 59 50 44 42 41 39 36 33 30 28 26 27 28 29 32 35 39
65 62 71 75 80 85 86 90 90 91 89 94 95 97 97 98 95 92 92 92 89 85 81 78 73 67 63 63 64 66 66 67 70 68 62 54 47 45 42 40 38 36 33 29 26 26 27 28 30 32 36 38 41 44
90 93 95 97 97 98 98 98 98 98 98 98 98 98 98 95 91 89 86 83 81 77 75 72 69 67 68 69 73 77 77 66 54 46 43 44 42 41 40 39 35 30 28 29 30 31 32 33 35 38 43 47 50 53
97 97 97 98 98 98 98 98 98 98 97 97 93 89 85 82 80 79 78 76 76 76 75 75 76 79 79 75 67 59 51 46 43 43 44 45 46 44 37 31 30 31 32 33 34 34 36 38 41 45 49 51 53 57
95 97 97 97 95 89 89 86 87 85 84 83 80 78 76 77 77 78 79 79 80 79 76 72 66 61 55 49 46 45 44 47 50 51 49 43 36 31 31 31 32 32 33 33 33 36 40 41 45 49 51 53 58 63
89 86 85 82 81 80 78 79 79 79 79 76 71 67 64 62 61 62 61 60 58 57 53 49 48 48 47 48 49 52 54 53 49 42 36 33 32 33 33 34 33 33 33 34 36 41 44 44 48 50 52 56 61 65
75 76 75 73 73 71 65 62 57 57 54 51 49 48 48 49 50 49 50 51 51 52 53 53 52 53 54 55 54 54 51 46 39 33 32 33 34 35 35 34 33 36 37 39 44 48 48 49 53 55 58 62 66 70
55 55 54 54 53 52 49 43 42 45 47 47 47 50 54 56 58 58 58 59 60 59 57 55 55 56 54 52 50 46 40 31 29 31 36 37 38 38 38 39 39 41 44 47 48 49 50 54 58 60 63 67 72 75

GFSWCAN_prec_cthk_030.txt.gz
RH
93 85 78 78 73 70 66 69 68 66 63 54 50 42 35 32 41 46 56 49 48 47 44 43 42 42 39 38 40 40 43 44 43 45 48 49 49 46 44 40 49 48 54 55 54 54 42 26 31 34 30 27 28 32
92 82 75 71 65 64 67 68 71 69 63 61 49 41 35 36 45 87 78 56 48 47 52 49 47 44 41 36 38 43 42 40 40 45 46 47 50 48 44 44 42 44 39 44 41 39 30 30 32 32 33 35 36 38
79 75 74 72 69 70 71 70 72 73 69 67 51 44 39 44 56 80 78 57 48 47 49 50 48 46 44 43 43 41 40 38 39 39 42 43 41 43 45 46 42 39 38 40 38 32 34 34 34 37 40 43 44 46
77 74 72 70 70 74 74 72 71 77 75 71 55 46 42 45 53 68 61 55 47 46 50 52 50 50 48 46 44 43 40 41 41 40 42 45 42 42 44 41 42 40 39 40 42 38 38 38 39 41 41 42 44 48
75 72 70 74 74 78 77 72 71 70 72 74 74 64 48 44 43 48 51 50 44 41 45 50 49 48 48 48 48 48 48 48 48 51 54 52 47 46 47 48 46 41 42 46 45 38 39 38 39 40 43 46 49 54
76 77 80 73 78 83 79 75 74 72 68 63 61 67 69 64 59 55 48 44 39 36 35 44 46 49 50 52 53 53 52 50 50 49 51 49 46 48 56 55 38 39 41 43 42 44 46 46 48 51 53 56 62 69
83 86 89 86 80 83 85 81 77 73 70 67 62 56 55 56 54 50 47 48 44 41 39 48 47 46 46 46 46 47 47 47 49 51 54 53 54 54 58 57 40 46 49 52 54 56 57 59 60 60 63 65 71 78
88 89 91 95 94 89 86 83 78 75 74 71 67 62 57 53 50 49 49 48 45 42 40 47 48 46 48 50 50 49 49 50 53 55 55 54 57 60 61 55 58 59 60 61 62 63 62 62 63 67 73 80 86 88
91 91 92 94 94 93 89 85 81 79 76 75 74 72 70 65 62 61 59 59 57 54 54 56 55 57 57 58 58 58 59 62 62 63 65 66 68 69 66 63 61 60 61 62 62 63 66 73 79 84 86 88 95 98
95 94 94 93 93 94 95 89 85 84 82 78 76 74 75 75 75 75 74 70 69 68 67 67 65 63 60 60 60 59 62 64 64 63 66 65 65 64 60 62 67 71 72 75 78 79 82 85 89 92 93 95 96 97
97 94 92 90 87 86 89 94 92 89 85 82 80 81 81 80 78 77 77 75 76 75 74 73 68 63 60 59 61 63 65 63 62 61 67 66 69 75 76 76 78 80 81 83 86 87 89 92 93 93 93 95 97 91
98 97 95 93 92 86 81 80 81 80 81 80 78 80 80 78 76 77 78 76 72 71 69 68 66 63 63 63 65 69 70 73 74 72 80 79 80 83 85 87 88 87 86 85 87 88 90 91 92 92 89 86 82 77
98 99 99 98 97 94 92 86 80 76 73 72 71 70 70 73 76 74 77 73 70 69 69 68 69 71 78 87 92 94 96 93 90 92 92 89 88 88 88 88 86 83 82 84 86 84 81 81 81 81 80 77 74 72
83 91 97 98 98 98 98 98 96 93 92 90 89 86 82 86 86 81 76 73 72 73 75 80 85 88 95 98 98 98 97 96 94 92 89 89 89 88 87 89 86 84 84 82 82 82 81 81 80 77 74 72 69 66
69 68 72 79 86 92 96 98 98 98 98 98 98 96 90 87 88 85 81 80 84 90 91 94 97 97 98 98 98 98 97 95 92 90 91 93 93 90 91 93 85 82 81 80 79 78 76 74 71 69 66 62 56 52
57 56 60 60 62 66 72 81 85 92 97 97 97 97 97 96 96 96 96 97 97 98 99 98 97 98 98 98 96 96 95 93 92 95 96 95 95 95 95 96 92 91 87 82 76 72 66 61 56 51 46 44 44 43
48 46 49 50 52 57 59 63 64 70 77 85 89 94 95 92 91 92 94 95 95 95 93 94 93 92 93 93 92 91 89 90 92 93 94 93 91 89 89 87 83 77 73 69 64 56 48 43 41 39 36 36 38 41
31 35 38 42 45 45 47 51 52 57 65 70 71 75 79 81 81 80 80 79 78 78 77 76 76 79 78 77 80 79 78 79 80 81 82 84 86 85 79 71 66 63 60 53 44 40 38 38 39 41 42 43 43 46
17 21 26 30 33 35 39 43 44 48 54 57 58 62 64 66 67 68 69 68 68 66 66 67 68 67 67 66 66 68 65 63 65 68 67 60 54 52 54 57 57 53 46 42 41 41 42 42 42 42 41 39 36 35
15 14 15 20 22 25 31 37 37 39 47 49 51 51 52 54 54 55 55 53 52 52 54 55 56 56 53 53 53 50 50 50 50 50 49 49 49 52 54 53 49 44 42 39 38 39 40 42 44 43 41 40 39 38
15 15 14 16 19 24 30 34 38 40 45 49 52 53 55 55 55 54 53 52 50 51 53 55 54 54 53 53 53 53 54 54 53 53 55 56 57 56 51 46 44 43 41 42 44 46 47 47 44 40 38 38 36 35
15 16 17 17 23 28 34 39 40 42 42 46 47 49 53 56 56 55 55 53 53 54 55 55 60 59 59 59 59 59 57 55 56 54 53 53 51 50 50 50 49 50 51 51 49 50 49 44 38 34 31 30 30 31
15 14 17 22 24 29 38 39 41 42 47 49 47 48 50 51 53 53 54 53 56 60 63 66 66 68 69 70 67 63 63 65 63 59 57 57 57 57 57 59 57 56 54 55 53 46 37 31 29 29 28 28 27 26
19 23 26 31 35 42 40 42 46 46 48 54 54 54 55 55 57 58 58 58 63 68 69 71 73 75 73 72 72 73 73 71 68 67 66 67 66 65 64 61 59 59 56 46 36 31 29 30 30 29 27 25 25 26
23 33 31 36 39 40 44 45 47 51 55 55 56 58 61 62 64 62 61 62 67 71 74 78 79 80 83 84 84 82 80 78 76 74 72 70 68 67 65 64 58 46 36 31 31 31 32 30 28 25 25 27 29 31
37 40 40 44 49 49 53 56 61 65 68 70 70 69 71 75 76 77 74 78 83 86 89 91 91 90 90 87 83 80 79 77 74 73 70 70 71 69 59 45 38 36 36 35 34 31 28 27 26 27 28 31 35 38
57 63 69 73 74 76 74 76 81 84 83 84 83 83 88 89 89 90 94 94 97 98 98 96 94 92 86 82 79 78 78 79 77 78 76 69 56 43 39 37 38 39 38 34 32 30 29 28 29 31 34 38 41 43
77 79 83 86 87 88 91 93 97 98 97 97 94 98 98 98 98 96 95 94 92 90 88 87 85 82 79 79 81 84 85 79 70 60 50 42 41 42 43 43 41 37 34 33 32 31 29 29 32 36 41 42 44 48
85 85 85 86 89 91 94 97 97 97 98 98 98 97 96 93 91 90 88 87 85 84 82 83 83 83 83 82 78 70 57 47 42 42 44 47 49 47 42 37 34 33 32 32 32 30 30 35 39 43 44 47 50 52
82 84 85 89 92 90 90 90 89 89 90 91 90 88 86 85 84 82 79 76 74 72 71 69 67 65 60 51 45 43 44 48 51 53 53 50 44 37 33 32 33 32 30 29 30 35 40 43 46 48 49 51 55 56
83 79 79 79 83 83 81 81 81 81 79 78 76 72 66 63 61 59 58 59 59 58 56 53 51 48 47 48 50 52 53 53 51 47 41 35 30 31 32 33 33 32 34 38 41 43 44 45 46 45 48 53 56 58
66 68 68 66 67 66 65 63 61 61 61 58 55 52 51 51 53 52 52 54 55 55 54 52 53 54 53 53 53 51 49 45 41 35 29 29 29 30 32 34 37 42 46 50 49 45 43 43 44 46 52 57 59 62
50 49 48 47 47 46 45 41 39 43 47 48 48 50 52 57 59 59 59 60 61 59 57 55 55 57 55 52 49 45 41 36 32 29 30 33 35 38 41 45 49 51 51 48 46 44 43 43 46 50 55 60 62 66

GFSWCAN_prec_cthk_033.txt.gz
RH
93 95 92 86 77 72 69 68 67 69 67 60 55 52 56 51 47 46 48 50 53 49 45 35 31 30 34 35 38 39 42 42 42 43 45 44 45 42 41 39 45 44 51 54 52 49 43 28 31 34 31 29 29 32
96 91 85 79 75 74 74 74 75 76 71 63 56 49 50 46 44 43 54 58 59 52 45 39 40 38 33 32 34 42 41 40 41 43 42 43 48 47 43 42 40 41 38 41 38 36 30 30 32 32 33 35 36 39
89 82 78 73 71 72 75 77 80 79 72 62 55 50 48 40 42 46 66 75 64 62 56 53 53 52 48 45 42 39 42 41 38 37 41 43 44 42 45 43 41 39 38 39 38 33 35 35 36 37 38 41 44 47
80 75 75 76 74 75 76 81 83 75 69 61 54 49 44 38 46 55 67 78 64 56 65 64 61 57 52 49 45 44 43 42 41 40 42 44 41 42 44 43 44 40 40 41 41 38 38 38 40 41 42 42 43 46
78 74 71 72 73 73 77 82 80 75 73 68 51 43 41 50 64 73 80 74 66 52 55 61 58 57 54 51 49 48 46 44 42 43 47 49 48 51 54 51 45 41 43 47 47 40 42 42 44 46 47 49 52 55
76 73 74 77 76 76 76 80 85 76 76 70 59 49 49 63 75 84 74 70 63 54 49 61 58 59 57 56 53 49 48 48 49 51 56 55 51 50 57 55 47 47 48 48 48 50 51 53 56 58 60 62 62 65
77 77 73 73 75 77 77 75 82 79 82 80 70 58 59 57 60 64 62 63 59 53 47 53 56 57 57 56 56 55 55 55 54 55 54 53 54 55 58 59 54 52 54 57 61 62 63 65 65 64 64 65 67 72
77 78 80 83 86 86 79 76 76 71 76 77 77 76 71 67 59 60 60 54 49 44 42 49 51 48 50 51 50 50 50 50 52 55 55 56 59 59 62 59 61 62 63 65 65 67 68 68 71 74 77 82 85 89
86 88 87 86 87 89 85 81 82 76 71 71 69 67 63 62 62 66 61 56 50 45 45 45 45 52 52 52 52 53 54 56 56 59 61 63 67 69 65 64 66 64 63 62 66 72 79 82 85 87 89 90 93 97
94 97 98 94 92 90 87 87 83 80 77 75 72 69 68 69 65 62 59 56 54 55 54 59 62 63 62 65 65 63 64 66 64 65 67 67 68 64 65 65 68 73 77 81 83 84 88 91 93 93 94 94 94 94
95 97 98 97 94 95 94 91 85 83 82 79 77 79 78 75 73 72 74 72 72 73 73 74 74 73 72 71 69 68 67 65 65 62 65 66 67 65 70 75 81 87 88 88 88 89 89 89 88 87 88 88 85 83
97 95 94 92 93 95 96 95 91 88 86 84 83 83 81 82 81 85 88 86 84 82 80 80 81 77 74 70 68 68 66 64 66 64 68 71 75 85 91 93 94 92 88 85 83 81 81 79 79 79 79 79 77 77
98 95 93 91 91 92 91 91 95 95 91 90 89 89 90 91 92 87 86 83 83 80 76 71 71 69 68 66 69 72 75 79 81 88 90 89 90 92 93 91 89 88 85 82 80 79 77 76 74 73 72 70 71 69
98 98 99 98 96 94 92 89 86 84 84 84 84 84 83 84 81 74 70 69 68 68 69 70 72 72 77 83 88 89 91 93 93 92 90 91 92 94 93 91 88 83 79 76 75 74 70 67 65 65 64 62 56 51
93 97 98 98 99 99 99 98 95 92 90 90 86 88 84 81 82 81 79 79 83 85 85 87 89 89 92 94 95 97 97 95 91 89 92 94 95 94 95 89 85 84 83 80 76 72 68 63 59 53 49 45 42 41
74 78 84 90 95 97 98 98 98 97 97 97 94 92 91 90 93 93 91 93 95 96 95 94 96 97 98 98 96 97 95 91 90 92 92 92 91 90 92 92 92 88 80 77 75 69 61 53 46 43 41 38 36 37
56 62 67 68 71 83 85 84 85 94 97 95 95 95 95 97 97 98 98 98 98 98 98 97 95 94 94 92 90 89 86 84 88 88 87 86 87 88 88 84 81 77 71 64 60 51 46 42 40 38 35 33 35 36
46 48 49 53 60 61 66 66 68 74 82 89 88 90 92 93 92 95 95 94 92 93 91 90 86 86 84 80 80 79 81 82 81 79 77 76 75 73 70 64 60 53 49 48 44 42 41 40 37 35 34 34 35 33
30 32 35 40 44 49 53 54 54 61 69 71 72 75 77 79 79 78 75 73 70 70 71 70 71 70 71 70 67 65 63 63 62 61 60 62 57 52 51 51 53 53 49 45 44 43 42 42 41 40 40 39 36 31
20 22 26 28 31 32 38 45 48 50 57 59 60 63 65 67 68 68 66 64 62 60 57 57 60 60 58 57 55 55 51 51 52 52 53 53 53 54 56 59 57 52 47 47 48 48 50 48 46 45 42 34 27 23
12 12 13 16 20 26 34 39 41 45 47 48 51 52 53 56 57 56 54 53 51 53 54 55 55 56 54 52 51 53 54 53 54 56 57 59 60 62 62 58 54 55 55 56 57 55 53 50 47 39 29 25 23 23
11 12 12 14 21 26 34 37 39 41 43 46 47 48 52 54 56 58 58 56 56 56 56 57 58 58 59 60 62 61 60 59 61 61 62 62 62 61 61 62 63 65 65 62 60 58 54 46 35 29 26 25 25 24
11 11 15 20 23 28 39 36 38 40 44 47 45 46 48 50 52 52 54 54 57 59 61 62 65 66 68 70 69 66 68 68 68 68 67 66 67 71 74 74 71 69 67 64 60 52 40 34 31 29 28 26 24 25
14 16 20 27 31 36 34 38 42 42 46 49 49 49 49 51 52 54 56 57 59 61 65 69 71 75 75 75 76 76 76 80 80 78 78 81 82 82 77 74 72 70 66 56 44 39 35 33 31 29 27 27 28 29
20 29 29 34 36 37 40 43 48 49 53 53 53 53 56 58 61 60 61 62 65 69 73 76 78 82 82 83 84 85 87 90 90 87 85 84 80 80 78 75 68 59 47 42 39 36 34 31 29 29 29 29 30 33
34 39 41 49 54 53 54 56 60 61 63 65 67 69 70 70 72 73 72 74 78 80 84 87 88 90 92 96 97 96 94 91 88 86 86 85 82 78 69 59 49 44 40 37 34 31 30 30 30 29 29 31 34 38
54 60 65 67 67 65 69 72 75 76 78 79 81 82 83 83 84 88 89 89 90 90 93 96 97 98 98 98 96 92 89 88 87 85 81 75 65 54 46 43 40 40 38 34 32 31 29 29 29 29 32 37 41 41
70 73 72 75 76 76 78 78 79 84 89 92 93 94 94 96 97 97 96 96 95 94 94 95 95 94 92 91 89 87 82 76 72 63 52 45 42 42 43 44 43 38 33 31 30 30 30 30 31 35 40 42 42 44
75 76 75 75 76 77 80 84 87 88 87 91 93 95 96 96 95 93 91 91 91 90 89 88 86 82 78 77 74 65 53 45 42 42 43 45 48 48 45 38 31 29 30 30 31 31 33 37 41 45 44 43 43 45
77 77 76 77 77 76 79 81 83 84 86 88 89 89 89 89 87 84 80 75 71 68 66 65 64 62 56 48 44 43 44 47 49 50 50 48 43 37 31 29 30 30 30 31 34 39 43 47 49 47 44 44 46 50
75 73 72 70 71 71 70 69 70 71 71 72 72 71 70 69 64 61 60 59 59 58 57 55 51 49 48 49 49 50 52 53 51 47 42 37 33 32 32 33 33 35 37 40 44 47 48 47 45 43 43 45 48 53
57 57 55 55 54 51 49 49 47 47 48 48 49 48 49 51 53 52 55 57 59 58 56 55 54 53 53 53 54 56 54 49 43 39 36 36 36 35 36 39 41 43 45 47 49 48 45 44 43 43 44 47 51 56
49 47 46 46 45 45 44 39 37 40 43 44 45 48 51 55 59 60 60 62 63 63 62 60 59 59 59 59 56 49 44 41 40 38 37 37 38 41 43 45 46 47 48 49 46 43 42 41 42 44 46 49 52 55

GFSWCAN_prec_cthk_036.txt.gz
RH
93 95 98 94 94 97 97 90 83 78 75 74 70 66 64 63 66 65 62 59 56 54 49 43 38 46 49 49 45 42 39 40 39 47 49 43 47 37 37 36 41 43 49 54 48 55 49 25 29 33 30 29 29 31
98 94 94 99 93 87 81 78 75 73 71 69 65 64 65 64 66 66 61 55 52 57 55 44 39 35 37 41 39 38 38 35 38 44 44 44 49 46 40 40 37 38 36 37 35 34 29 30 31 32 33 34 36 39
97 94 91 86 81 78 76 75 72 69 67 64 63 61 60 61 71 64 55 54 53 63 58 52 44 36 34 37 40 40 40 41 40 39 40 44 50 41 48 40 37 35 35 35 35 32 33 34 35 36 38 39 41 42
86 83 81 79 78 79 82 83 79 74 66 61 58 57 63 67 64 55 51 58 61 65 64 54 46 47 45 39 38 38 43 44 42 41 43 44 45 40 42 39 38 39 40 39 37 35 36 38 41 43 45 46 47 50
82 82 83 84 87 91 91 87 80 73 65 62 57 55 64 63 56 53 57 69 78 71 68 59 55 58 57 54 52 49 45 46 47 48 49 48 44 45 47 47 48 45 44 44 44 44 44 45 49 50 53 55 58 62
81 81 83 84 87 87 85 83 78 74 64 57 54 56 59 53 54 53 70 86 77 75 68 78 69 68 63 58 55 55 53 50 52 51 53 50 51 53 60 51 50 50 52 53 52 52 55 58 62 64 65 65 64 64
80 77 78 80 84 83 79 77 84 79 68 63 61 60 55 56 56 58 69 79 73 66 58 72 76 75 68 60 59 59 57 56 57 58 60 60 57 54 57 56 54 54 55 57 60 64 67 67 68 66 65 68 74 81
78 77 78 79 80 87 85 82 87 86 77 68 70 69 69 78 80 75 71 68 68 62 57 59 61 66 65 69 71 66 70 68 63 64 60 58 58 60 63 56 58 62 64 67 67 68 68 67 68 73 80 84 88 91
81 81 81 82 82 85 85 82 81 79 77 70 67 68 70 76 78 76 73 71 67 64 63 59 61 60 60 59 58 57 56 56 56 57 59 59 61 63 62 65 67 68 68 68 69 73 77 81 87 88 90 91 91 91
86 87 88 86 85 82 79 74 82 85 79 75 69 61 59 66 71 72 74 70 64 61 56 56 55 53 52 55 57 56 58 60 60 61 65 67 66 67 68 66 66 66 69 74 78 84 87 89 89 90 87 84 84 83
88 90 91 90 88 87 87 80 75 74 78 71 74 79 78 73 70 68 69 68 66 65 60 60 60 60 63 66 68 68 69 69 70 68 70 70 67 64 64 67 74 80 85 87 89 88 87 85 84 81 79 78 77 76
91 95 95 94 91 92 90 89 84 77 73 74 77 77 75 75 72 74 73 71 67 67 65 69 71 73 75 78 78 78 78 74 75 69 70 69 64 75 84 89 93 92 91 88 86 86 84 81 79 75 70 64 60 57
94 93 92 93 91 91 93 94 94 88 85 83 81 82 83 84 87 86 82 79 80 80 83 83 84 83 80 78 76 74 72 73 67 73 72 70 82 91 94 93 91 90 88 86 81 73 67 62 59 58 57 52 48 44
95 94 94 91 90 90 90 92 95 95 93 92 94 97 96 96 92 89 86 85 85 82 79 77 75 73 72 72 75 74 75 77 79 79 83 89 95 95 95 95 91 84 77 74 70 66 65 62 57 49 43 40 40 38
97 97 94 95 93 92 92 91 91 91 93 93 92 95 93 88 88 86 82 76 72 72 74 76 77 78 82 86 89 90 91 91 87 88 91 95 95 95 94 90 83 80 76 73 71 69 65 55 49 42 37 35 37 38
92 95 96 97 97 98 97 97 96 94 95 94 93 93 91 89 87 85 83 84 84 87 88 89 90 89 90 93 94 95 96 93 94 94 94 95 95 92 88 85 82 78 73 70 68 62 54 44 38 36 37 37 35 35
81 84 89 93 94 95 96 97 98 97 96 95 93 96 95 95 95 94 96 96 97 98 97 96 98 98 97 96 96 95 94 93 92 93 92 90 89 86 84 79 75 71 69 67 56 45 40 37 35 36 38 39 40 39
59 63 74 80 85 84 86 85 89 93 97 98 98 97 98 98 97 97 97 97 97 97 96 96 93 96 95 93 91 90 88 88 85 83 80 78 77 73 72 69 62 53 52 51 48 43 38 37 39 42 42 42 41 40
47 52 53 58 62 62 66 72 72 80 89 89 92 93 93 92 90 91 91 92 92 92 92 90 91 87 88 87 83 80 77 72 68 65 62 60 60 59 55 53 53 56 56 51 46 44 43 45 47 47 46 45 42 35
31 36 38 40 40 43 52 58 62 67 70 73 74 77 77 77 78 78 76 74 72 71 71 71 72 71 68 63 61 60 58 55 53 53 54 57 58 56 57 59 60 59 56 51 51 52 54 55 55 52 49 45 35 30
19 20 24 26 28 33 43 48 51 57 58 62 65 65 66 66 67 66 65 60 59 58 56 56 57 57 56 57 58 58 56 58 59 61 61 60 61 62 64 64 63 60 59 60 63 65 63 59 56 53 45 37 33 30
10 12 13 15 22 28 36 39 44 46 50 53 54 54 56 55 57 57 58 55 56 56 57 57 57 57 57 57 57 60 63 65 65 65 66 67 71 72 71 69 68 70 72 74 72 66 61 59 53 42 36 34 32 29
10 11 14 19 22 29 39 37 38 40 43 45 45 45 47 49 52 52 55 57 60 61 61 62 62 63 65 66 65 68 69 68 69 71 71 74 74 75 77 79 80 80 76 71 68 66 60 48 40 37 34 32 27 25
12 15 18 23 29 33 33 39 41 42 45 46 46 47 47 49 50 53 55 57 59 60 62 64 67 69 72 76 77 77 76 78 81 82 83 84 86 90 88 84 81 78 75 72 65 52 43 40 37 33 28 25 26 27
17 28 27 31 33 35 38 45 47 44 50 49 50 51 53 54 54 56 58 60 63 67 70 72 74 77 78 79 81 84 86 88 90 93 96 94 90 89 89 85 79 74 63 50 44 41 39 34 29 27 28 28 28 31
33 41 42 46 48 47 47 52 53 56 56 58 61 63 64 65 66 66 68 72 73 74 76 78 81 85 88 88 91 95 97 98 98 97 95 93 91 86 77 67 56 48 45 43 40 35 30 28 28 28 28 30 34 39
49 55 58 56 56 56 60 61 63 64 67 69 71 73 74 75 77 81 84 86 88 88 90 91 92 93 96 97 98 98 97 95 94 92 87 79 69 57 48 45 45 45 42 36 30 28 28 27 27 30 33 36 41 43
63 65 64 66 67 67 69 69 71 75 78 82 82 86 86 90 89 89 91 93 94 94 95 96 96 96 95 95 94 91 88 81 74 63 50 43 43 44 46 45 42 38 33 29 27 26 28 30 32 35 39 42 44 43
70 71 70 72 73 73 74 76 78 81 82 84 85 86 88 89 90 90 91 91 91 90 89 87 84 80 77 74 71 62 51 46 45 45 46 48 48 47 43 40 36 31 29 29 31 33 35 36 38 41 44 44 42 42
78 75 75 74 73 72 74 73 73 71 71 74 76 78 80 80 79 78 77 76 72 68 67 66 65 63 59 52 49 48 48 49 50 51 51 48 45 42 40 37 34 34 36 38 38 39 40 41 43 45 44 42 42 43
62 60 59 58 59 60 59 56 55 55 56 57 60 62 63 62 60 58 57 58 58 59 59 59 55 53 53 52 52 54 56 56 53 49 45 44 43 41 38 38 40 42 41 41 41 41 43 45 46 45 43 42 43 45
47 48 46 46 48 46 44 45 44 45 46 46 47 47 49 51 53 51 54 57 59 60 60 59 58 58 59 62 64 61 55 49 46 46 45 43 41 42 43 45 46 45 44 43 44 45 47 46 43 42 42 43 45 46
44 42 41 42 43 44 43 40 40 42 46 47 49 52 55 57 60 62 63 64 65 64 63 63 64 67 67 62 55 50 48 47 46 46 47 47 48 49 50 50 49 47 46 46 45 44 42 42 42 43 43 44 45 46

GFSWCAN_prec_cthk_042.txt.gz
RH
85 92 86 65 58 54 55 62 59 55 57 52 48 57 72 81 72 81 80 88 93 87 67 60 56 56 63 57 95 68 49 46 46 48 48 44 49 46 45 42 48 53 60 65 61 71 63 35 32 34 40 36 31 30
72 60 49 46 52 56 56 56 54 56 55 50 44 71 86 91 95 97 94 84 96 93 74 59 60 62 65 60 83 62 47 42 41 43 42 49 54 52 45 45 37 44 39 47 43 48 36 33 32 33 33 33 36 37
59 60 64 69 72 75 78 75 67 64 70 76 74 88 91 97 93 94 97 91 96 69 70 76 80 65 62 59 63 59 57 46 45 45 44 47 52 43 50 44 45 38 37 38 37 33 37 37 38 40 39 41 39 41
79 77 77 77 84 87 90 92 89 88 94 88 92 88 94 98 98 83 77 71 82 69 69 68 65 57 48 64 84 65 51 48 50 48 44 42 48 40 45 41 42 41 38 35 35 37 39 44 47 43 45 45 45 48
93 95 95 89 87 91 94 96 97 84 86 85 87 94 97 97 90 95 97 91 77 63 69 71 62 54 44 46 60 59 57 54 53 52 49 49 43 45 45 42 42 38 39 42 47 45 46 53 50 48 46 47 49 53
98 99 98 98 91 90 92 96 96 96 96 95 90 93 97 94 89 86 84 68 67 69 65 78 70 60 51 46 53 58 61 66 60 55 53 49 49 49 53 50 47 43 43 46 52 50 51 48 47 48 52 55 59 61
99 97 98 98 97 95 97 97 95 93 92 89 89 89 94 94 94 90 82 74 70 65 68 74 75 64 59 52 54 58 60 67 59 53 51 52 52 55 56 59 52 49 49 49 48 51 53 53 54 59 61 64 63 63
96 96 93 91 90 88 89 89 91 92 90 89 89 93 94 92 95 94 87 81 72 66 71 75 78 69 62 63 63 58 60 59 57 58 59 66 64 63 65 57 55 55 53 51 51 53 57 62 64 65 66 65 66 69
93 95 94 91 87 86 85 87 88 87 87 87 88 93 95 94 93 90 87 80 80 71 73 77 77 71 65 68 68 67 66 68 66 71 70 70 71 69 63 61 60 61 58 55 59 62 63 65 67 67 67 70 76 79
97 96 94 92 92 89 87 79 80 84 87 88 88 91 97 94 90 87 84 78 77 83 71 75 81 73 67 72 75 74 76 79 75 75 75 78 74 68 68 63 61 60 61 64 65 67 68 68 69 72 79 82 81 81
95 94 94 96 93 94 95 88 82 81 84 88 91 92 93 90 89 83 75 77 79 87 78 78 76 81 81 85 83 82 81 80 79 75 77 71 68 61 61 62 64 67 68 69 69 70 72 78 82 84 84 84 76 68
95 95 91 92 95 92 91 93 90 83 82 84 83 87 89 86 85 84 80 84 88 88 83 78 75 75 77 77 78 82 76 70 69 64 67 67 62 64 69 71 72 72 71 72 74 77 81 83 86 86 79 68 62 55
96 96 97 95 91 94 89 86 83 82 79 80 84 85 85 86 95 89 85 86 84 79 78 77 76 73 72 69 69 67 69 71 64 71 66 66 72 78 79 76 71 70 71 75 80 84 87 83 77 71 66 63 57 47
91 93 92 89 90 93 93 88 87 82 79 82 86 92 95 94 90 86 85 85 85 83 81 77 75 74 72 73 74 72 77 74 76 77 73 79 81 77 72 71 76 82 85 87 86 82 77 74 71 66 60 54 45 37
87 85 86 87 89 89 89 92 88 86 87 88 89 90 85 82 82 86 87 85 83 81 80 79 78 76 79 79 80 83 86 88 85 83 80 75 74 76 82 87 91 90 88 86 81 79 77 73 68 61 51 43 35 29
89 88 86 83 85 87 89 88 92 95 98 98 97 96 93 93 94 93 91 91 90 89 87 86 88 88 91 91 88 89 86 81 80 79 82 85 89 93 96 96 91 89 91 89 82 77 72 69 61 49 40 33 31 33
90 89 85 83 84 85 86 89 94 96 97 97 96 97 98 97 95 95 94 94 96 96 94 92 92 91 86 84 85 86 86 87 90 92 95 98 97 97 96 95 94 90 88 87 82 75 64 54 45 38 38 38 39 42
70 80 85 85 88 89 90 92 92 95 97 98 97 98 97 98 98 98 98 97 94 92 91 91 89 93 95 94 93 95 96 98 98 98 98 97 97 98 96 93 91 88 82 78 68 60 50 47 46 45 46 47 49 51
62 62 65 68 70 81 92 94 97 97 98 98 98 98 97 98 98 98 98 98 98 98 98 98 98 97 98 98 98 98 98 98 97 97 97 97 95 91 88 82 78 77 71 62 57 55 54 52 52 52 54 54 55 56
45 55 58 54 50 60 77 88 95 96 97 97 97 97 97 97 97 97 97 97 97 96 97 97 97 97 98 98 98 98 97 95 92 90 87 82 78 76 73 68 64 65 63 61 61 61 61 59 62 61 61 59 60 57
26 32 33 32 39 54 69 76 83 91 95 97 96 96 96 96 96 96 94 92 89 96 96 97 97 97 96 95 93 91 87 84 79 75 71 67 65 63 65 68 72 70 70 69 69 70 67 69 68 66 63 65 63 56
15 16 19 25 32 39 51 61 67 70 77 79 82 83 86 84 83 84 83 79 82 82 82 82 81 80 80 79 78 77 76 73 69 67 66 67 69 72 75 76 76 76 76 76 76 77 79 73 72 70 68 60 49 47
8 9 12 17 24 34 49 50 50 55 58 62 67 65 67 69 70 71 72 73 73 74 74 74 73 71 71 71 70 70 70 71 71 72 73 74 74 76 78 79 80 81 85 84 81 80 80 78 75 63 54 48 45 40
10 12 16 23 28 35 36 40 42 43 46 50 47 48 50 52 51 56 57 61 63 64 66 68 68 68 68 68 69 70 71 72 73 73 74 77 80 81 83 87 88 86 84 86 86 81 77 67 55 51 47 37 36 34
17 28 29 32 34 37 38 41 42 42 45 47 46 47 49 49 50 51 53 57 59 61 62 64 64 66 68 70 71 73 74 76 78 81 85 86 87 88 91 94 93 91 89 85 79 64 53 48 45 39 33 35 36 37
34 38 38 39 41 42 45 46 48 51 50 52 55 55 57 58 58 61 64 65 66 68 69 70 70 72 73 75 78 80 82 85 88 89 92 95 96 97 98 97 91 86 73 58 51 46 43 39 36 36 38 40 40 41
46 46 46 46 47 49 51 53 55 57 60 62 64 63 65 67 67 70 71 72 72 74 75 77 79 82 83 85 87 88 90 92 94 95 95 93 87 81 76 69 58 52 48 46 43 38 37 37 40 43 43 44 45 44
53 56 54 56 57 59 59 60 62 66 67 67 71 68 70 72 75 77 77 77 78 79 78 79 80 82 84 85 87 88 88 84 78 73 69 67 61 56 55 53 51 47 44 42 40 41 43 45 45 46 48 48 47 45
59 60 61 60 59 61 65 68 69 71 70 69 71 71 73 76 75 75 76 75 75 75 75 75 75 75 75 73 68 63 59 58 56 52 54 56 56 56 53 46 45 45 46 47 47 48 49 49 50 49 47 44 43 44
64 64 62 60 61 63 62 61 59 59 57 57 57 58 60 62 63 65 65 66 67 66 65 64 62 61 61 60 58 53 49 51 53 55 57 58 53 46 44 48 48 49 49 50 51 51 49 45 43 44 45 46 47 47
46 43 44 46 48 48 47 45 44 44 45 46 47 48 51 53 55 56 56 56 56 56 57 58 60 60 61 57 59 63 67 66 62 56 50 45 44 45 49 50 51 49 46 43 42 43 43 43 44 45 47 47 47 47
38 38 37 42 46 41 41 43 44 47 51 47 46 48 50 51 52 54 57 60 62 64 65 66 66 66 64 67 67 66 61 55 50 46 46 47 47 44 41 39 39 41 42 43 44 45 45 46 46 47 48 48 48 47
42 43 42 41 47 49 44 45 48 49 49 49 50 54 56 60 63 63 64 65 66 66 66 64 64 65 65 64 62 58 53 49 44 41 38 37 36 37 38 40 42 44 47 48 49 50 50 51 51 52 53 53 54 53

GFSWCAN_prec_cthk_045.txt.gz
RH
79 82 84 89 92 76 68 81 91 98 98 97 92 74 62 54 46 59 66 78 71 81 78 64 56 47 48 64 65 66 70 89 87 68 67 62 54 43 48 48 55 54 60 61 66 66 58 38 37 40 42 36 34 33
86 90 91 76 70 65 68 83 87 90 81 77 73 66 53 45 47 64 69 58 81 81 77 81 66 47 49 56 64 69 63 68 82 74 69 54 51 48 45 54 44 49 46 52 52 53 39 33 36 35 34 36 38 37
89 89 88 75 68 71 72 80 87 84 72 64 60 53 43 38 40 56 76 78 90 79 88 86 76 73 60 57 66 68 61 79 70 55 54 50 49 44 51 50 41 39 40 44 41 40 39 39 37 36 36 38 40 39
64 64 62 58 59 62 66 72 73 71 63 55 49 44 43 52 76 76 87 96 91 91 85 89 83 89 73 83 70 60 61 69 55 48 52 48 44 41 47 40 43 42 41 42 42 43 42 44 43 42 42 43 42 42
76 75 74 75 70 62 62 60 58 56 52 47 45 46 60 77 83 93 98 94 93 88 98 98 88 78 75 66 68 57 82 72 62 55 54 51 44 44 43 43 46 42 40 40 45 40 41 46 46 47 48 49 46 46
86 85 87 88 88 83 73 63 57 52 49 49 52 74 81 91 92 98 98 91 99 98 99 96 88 74 71 90 81 68 84 72 57 53 57 53 51 47 50 53 46 44 41 40 42 42 44 49 51 52 50 50 51 53
94 96 97 96 90 90 88 83 77 67 56 59 72 89 94 95 95 93 96 96 97 96 94 93 96 93 86 73 73 68 82 70 62 63 62 60 59 56 54 56 50 49 48 48 50 49 52 52 54 53 54 57 58 59
96 95 98 96 96 86 76 81 83 79 81 83 86 92 96 98 96 97 97 91 89 93 81 85 85 80 73 69 66 67 69 71 73 68 71 70 67 60 57 54 54 54 52 52 53 53 54 55 58 60 61 60 60 62
96 96 95 98 95 96 95 94 96 97 96 95 96 95 97 98 99 93 90 83 75 73 81 86 84 85 77 72 66 61 60 67 71 73 69 68 68 65 60 62 64 59 56 58 60 59 60 64 66 67 65 66 68 72
95 93 92 93 93 95 94 95 92 95 98 98 96 99 98 94 90 85 80 77 74 70 71 85 78 79 76 72 70 69 67 67 69 68 69 74 73 70 69 69 70 66 65 64 63 67 68 67 68 71 72 74 77 77
95 94 91 90 91 95 93 92 93 96 99 98 98 96 93 91 87 82 82 81 77 80 74 81 86 79 73 74 72 71 75 73 73 73 75 76 76 73 76 75 74 71 70 69 69 71 72 71 73 76 79 78 78 70
95 94 95 94 95 93 92 91 91 91 89 88 91 93 93 93 89 85 87 84 84 83 82 84 85 84 82 76 78 78 75 76 79 75 78 74 70 72 72 71 69 71 72 74 75 75 77 79 79 78 78 73 72 69
95 96 96 97 94 95 93 92 92 93 91 91 90 92 89 91 91 84 83 80 77 80 82 83 86 86 87 81 81 84 84 85 78 75 71 74 72 71 71 71 73 75 76 78 79 80 79 81 86 78 78 77 72 67
96 95 95 95 96 94 87 86 86 84 82 83 84 85 86 90 86 88 86 84 84 83 84 88 87 84 83 82 80 77 80 76 74 74 71 72 74 75 74 78 83 81 78 81 82 85 86 79 79 80 78 76 70 61
86 87 90 94 91 91 88 86 85 82 80 81 82 90 90 90 90 89 89 88 90 89 87 85 85 84 83 81 79 79 81 78 76 75 77 78 83 87 84 80 80 80 84 87 82 84 85 84 81 79 77 69 60 52
80 80 83 88 91 91 89 87 86 85 89 90 90 93 94 94 94 92 91 94 94 92 89 87 87 85 85 86 82 83 81 81 82 88 89 87 84 81 84 87 88 92 95 91 91 90 89 85 82 77 68 57 45 36
82 78 81 83 85 88 88 90 96 97 98 96 96 95 96 95 93 92 94 96 96 94 92 90 90 91 88 89 92 95 95 94 92 87 86 89 92 95 97 97 97 97 96 91 91 93 91 85 73 64 54 42 39 41
75 75 75 82 82 81 83 88 92 96 97 98 98 98 98 98 98 98 98 98 98 98 98 98 98 98 98 97 95 93 92 93 95 96 98 98 97 97 97 97 97 97 96 96 93 88 78 70 63 51 48 46 46 47
57 60 62 65 77 83 81 86 88 93 97 97 97 97 97 98 98 98 98 98 98 98 98 98 97 97 97 98 98 98 98 98 98 98 98 98 97 97 97 97 96 94 90 84 79 74 68 58 55 55 53 53 55 56
39 41 40 43 54 72 84 93 92 94 98 98 98 97 97 97 98 98 97 97 97 96 97 97 97 97 98 98 98 98 98 98 98 97 97 96 96 94 92 87 84 83 82 80 73 65 63 65 67 64 61 66 65 63
20 25 27 30 41 59 75 86 95 97 97 97 98 97 97 98 97 97 94 91 93 97 97 97 97 97 98 98 98 97 97 97 94 92 90 89 85 82 81 80 77 74 73 75 74 74 73 74 72 70 68 68 67 63
13 14 16 21 31 43 57 67 75 82 90 94 92 93 96 96 97 95 89 89 94 96 97 97 97 97 97 97 96 94 92 90 88 86 83 81 79 75 73 74 75 78 78 78 79 81 78 77 75 73 72 71 66 54
6 7 10 17 23 35 46 48 54 62 69 69 74 77 82 85 87 85 87 89 89 90 90 91 92 92 91 90 88 87 86 85 81 77 74 75 77 78 77 78 79 80 82 83 83 80 80 78 78 78 75 63 49 43
8 13 16 24 27 33 33 39 41 43 50 56 60 64 66 67 68 66 73 74 75 77 78 79 79 79 79 79 78 77 77 76 76 77 78 78 79 80 80 81 84 86 87 86 85 83 81 81 78 67 53 45 41 40
15 29 28 32 34 37 39 39 40 40 48 49 45 50 51 51 53 56 58 62 62 63 63 64 64 65 67 69 69 71 73 75 76 77 77 78 80 84 87 88 89 90 91 88 82 80 76 65 52 45 41 40 41 41
34 39 38 39 43 42 45 47 48 52 52 50 52 53 57 55 56 61 64 66 66 66 67 68 70 70 72 73 75 76 78 81 82 83 84 86 88 90 91 92 91 86 82 76 67 57 50 45 41 38 38 40 42 44
46 50 49 48 51 53 52 53 54 55 60 64 65 66 71 68 69 71 72 73 73 73 74 75 75 76 78 79 80 81 82 84 86 86 86 86 83 80 76 70 65 61 55 52 48 42 38 37 38 41 43 45 48 48
53 57 57 59 59 59 61 60 62 66 68 70 72 70 71 73 76 77 78 78 80 78 78 79 79 79 79 80 80 79 79 78 77 73 67 64 62 60 57 54 51 46 43 42 42 43 44 45 46 47 47 47 47 45
60 60 59 57 56 58 65 67 68 66 65 65 68 67 68 69 69 69 69 69 68 69 69 71 70 68 67 63 57 55 56 55 53 53 54 57 59 57 52 48 49 48 49 48 48 48 48 48 47 46 44 42 42 42
55 58 57 51 54 58 57 54 53 51 49 48 49 53 56 58 59 59 60 61 61 60 60 59 58 57 57 59 57 56 57 59 59 59 58 56 52 51 50 50 50 48 47 46 45 44 44 43 42 42 42 43 45 46
37 38 41 39 42 42 43 44 45 45 44 42 43 44 48 50 52 54 55 57 56 56 59 60 60 59 58 58 60 63 65 62 60 56 54 52 50 48 47 45 43 41 42 42 42 42 43 45 47 47 49 51 53 54
36 39 40 47 46 44 44 47 47 52 51 48 48 48 50 52 55 57 60 62 62 64 65 65 63 63 63 62 60 59 57 55 51 48 43 39 37 36 36 37 39 42 45 48 52 55 58 59 60 60 61 62 64 64
42 41 40 41 49 50 44 47 53 54 55 56 56 57 58 61 62 62 65 66 65 65 64 63 62 61 60 57 50 42 37 35 35 35 35 37 40 45 50 54 57 59 61 64 66 67 69 70 71 73 75 78 79 78